Time,TemperatureF,DewpointF,PressureIn,WindDirection,WindDirectionDegrees,WindSpeedMPH,WindSpeedGustMPH,Humidity,HourlyPrecipIn,Conditions,Clouds,dailyrainin,SoftwareType,DateUTC
2013-07-31 00:00:00,66.9,63.9,30.53,NNE,12,0.0,0.0,90,0.00,,,0.00,VWS V14.01,2013-07-31 04:00:00,
2013-07-31 00:01:00,66.9,63.9,30.53,NNE,12,0.0,0.0,90,0.00,,,0.00,VWS V14.01,2013-07-31 04:01:00,
2013-07-31 00:06:00,66.9,63.9,30.53,NNE,12,0.0,0.0,90,0.00,,,0.00,VWS V14.01,2013-07-31 04:06:00,
2013-07-31 00:11:00,66.9,63.9,30.53,NNE,12,0.0,0.0,90,0.00,,,0.00,VWS V14.01,2013-07-31 04:11:00,
2013-07-31 00:12:00,66.9,63.9,30.53,NNE,12,0.0,0.0,90,0.00,,,0.00,VWS V14.01,2013-07-31 04:12:00,
2013-07-31 00:16:00,66.9,63.9,30.53,NNE,12,0.0,0.0,90,0.00,,,0.00,VWS V14.01,2013-07-31 04:16:00,
2013-07-31 00:17:00,66.9,63.9,30.53,NNE,12,0.0,0.0,90,0.00,,,0.00,VWS V14.01,2013-07-31 04:17:00,
2013-07-31 00:21:00,66.9,63.9,30.53,NNE,12,0.0,0.0,90,0.00,,,0.00,VWS V14.01,2013-07-31 04:21:00,
2013-07-31 00:22:00,66.9,63.9,30.53,NNE,12,0.0,0.0,90,0.00,,,0.00,VWS V14.01,2013-07-31 04:22:00,
2013-07-31 00:26:00,66.7,64.0,30.53,NNE,12,0.0,0.0,91,0.00,,,0.00,VWS V14.01,2013-07-31 04:26:00,
2013-07-31 00:27:00,66.7,64.0,30.53,NNE,12,0.0,0.0,91,0.00,,,0.00,VWS V14.01,2013-07-31 04:27:00,
2013-07-31 00:32:00,66.7,64.0,30.50,NNE,12,0.0,0.0,91,0.00,,,0.00,VWS V14.01,2013-07-31 04:32:00,
2013-07-31 00:37:00,66.7,64.0,30.50,NNE,12,0.0,0.0,91,0.00,,,0.00,VWS V14.01,2013-07-31 04:37:00,
2013-07-31 00:38:00,66.7,64.0,30.50,NNE,12,0.0,0.0,91,0.00,,,0.00,VWS V14.01,2013-07-31 04:38:00,
2013-07-31 00:42:00,66.7,64.0,30.50,NNE,12,0.0,0.0,91,0.00,,,0.00,VWS V14.01,2013-07-31 04:42:00,
2013-07-31 00:43:00,66.7,64.0,30.50,NNE,12,0.0,0.0,91,0.00,,,0.00,VWS V14.01,2013-07-31 04:43:00,
2013-07-31 00:47:00,66.7,64.0,30.50,NNE,12,0.0,0.0,91,0.00,,,0.00,VWS V14.01,2013-07-31 04:47:00,
2013-07-31 00:48:00,66.7,64.0,30.50,NNE,12,0.0,0.0,91,0.00,,,0.00,VWS V14.01,2013-07-31 04:48:00,
2013-07-31 00:52:00,66.6,63.9,30.50,NNE,12,0.0,0.0,91,0.00,,,0.00,VWS V14.01,2013-07-31 04:52:00,
2013-07-31 00:53:00,66.6,63.9,30.50,NNE,12,0.0,0.0,91,0.00,,,0.00,VWS V14.01,2013-07-31 04:53:00,
2013-07-31 00:57:00,66.6,63.9,30.50,NNE,12,0.0,0.0,91,0.00,,,0.00,VWS V14.01,2013-07-31 04:57:00,
2013-07-31 00:58:00,66.6,63.9,30.50,NNE,12,0.0,0.0,91,0.00,,,0.00,VWS V14.01,2013-07-31 04:58:00,
2013-07-31 01:02:00,66.4,63.7,30.50,NNE,12,0.0,0.0,91,0.00,,,0.00,VWS V14.01,2013-07-31 05:02:00,
2013-07-31 01:03:00,66.4,63.7,30.50,NNE,12,0.0,0.0,91,0.00,,,0.00,VWS V14.01,2013-07-31 05:03:00,
2013-07-31 01:04:00,66.4,63.7,30.50,NNE,12,0.0,0.0,91,0.00,,,0.00,VWS V14.01,2013-07-31 05:04:00,
2013-07-31 01:07:00,66.4,63.7,30.50,NNE,12,0.0,0.0,91,0.00,,,0.00,VWS V14.01,2013-07-31 05:07:00,
2013-07-31 01:08:00,66.4,63.7,30.50,NNE,12,0.0,0.0,91,0.00,,,0.00,VWS V14.01,2013-07-31 05:08:00,
2013-07-31 01:09:00,66.4,63.7,30.50,NNE,12,0.0,0.0,91,0.00,,,0.00,VWS V14.01,2013-07-31 05:09:00,
2013-07-31 01:12:00,66.4,63.7,30.50,NNE,12,0.0,0.0,91,0.00,,,0.00,VWS V14.01,2013-07-31 05:12:00,
2013-07-31 01:13:00,66.4,63.7,30.50,NNE,12,0.0,0.0,91,0.00,,,0.00,VWS V14.01,2013-07-31 05:13:00,
2013-07-31 01:14:00,66.4,63.7,30.50,NNE,12,0.0,0.0,91,0.00,,,0.00,VWS V14.01,2013-07-31 05:14:00,
2013-07-31 01:18:00,66.4,63.7,30.50,NNE,12,0.0,0.0,91,0.00,,,0.00,VWS V14.01,2013-07-31 05:18:00,
2013-07-31 01:19:00,66.4,63.7,30.50,NNE,12,0.0,0.0,91,0.00,,,0.00,VWS V14.01,2013-07-31 05:19:00,
2013-07-31 01:23:00,66.4,63.7,30.50,NNE,12,0.0,0.0,91,0.00,,,0.00,VWS V14.01,2013-07-31 05:23:00,
2013-07-31 01:24:00,66.4,64.0,30.50,NNE,12,0.0,0.0,92,0.00,,,0.00,VWS V14.01,2013-07-31 05:24:00,
2013-07-31 01:28:00,66.4,64.0,30.50,NNE,12,0.0,0.0,92,0.00,,,0.00,VWS V14.01,2013-07-31 05:28:00,
2013-07-31 01:29:00,66.4,64.0,30.50,NNE,12,0.0,0.0,92,0.00,,,0.00,VWS V14.01,2013-07-31 05:29:00,
2013-07-31 01:33:00,66.4,64.0,30.50,NNE,12,0.0,0.0,92,0.00,,,0.00,VWS V14.01,2013-07-31 05:33:00,
2013-07-31 01:34:00,66.4,64.0,30.50,NNE,12,0.0,0.0,92,0.00,,,0.00,VWS V14.01,2013-07-31 05:34:00,
2013-07-31 01:38:00,66.4,64.0,30.50,NNE,12,0.0,0.0,92,0.00,,,0.00,VWS V14.01,2013-07-31 05:38:00,
2013-07-31 01:39:00,66.4,64.0,30.50,NNE,12,0.0,0.0,92,0.00,,,0.00,VWS V14.01,2013-07-31 05:39:00,
2013-07-31 01:43:00,66.6,64.2,30.56,NNE,12,0.0,0.0,92,0.00,,,0.00,VWS V14.01,2013-07-31 05:43:00,
2013-07-31 01:44:00,66.6,64.2,30.56,NNE,12,0.0,0.0,92,0.00,,,0.00,VWS V14.01,2013-07-31 05:44:00,
2013-07-31 01:45:00,66.6,64.2,30.56,NNE,12,0.0,0.0,92,0.00,,,0.00,VWS V14.01,2013-07-31 05:45:00,
2013-07-31 01:48:00,66.6,64.2,30.56,NNE,12,0.0,0.0,92,0.00,,,0.00,VWS V14.01,2013-07-31 05:48:00,
2013-07-31 01:49:00,66.6,64.5,30.56,NNE,12,0.0,0.0,93,0.00,,,0.00,VWS V14.01,2013-07-31 05:49:00,
2013-07-31 01:50:00,66.6,64.5,30.56,NNE,12,0.0,0.0,93,0.00,,,0.00,VWS V14.01,2013-07-31 05:50:00,
2013-07-31 01:53:00,66.6,64.5,30.56,NNE,12,0.0,0.0,93,0.00,,,0.00,VWS V14.01,2013-07-31 05:53:00,
2013-07-31 01:54:00,66.6,64.5,30.56,NNE,12,0.0,0.0,93,0.00,,,0.00,VWS V14.01,2013-07-31 05:54:00,
2013-07-31 01:55:00,66.6,64.5,30.56,NNE,12,0.0,0.0,93,0.00,,,0.00,VWS V14.01,2013-07-31 05:55:00,
2013-07-31 01:58:00,66.6,64.5,30.53,NNE,12,0.0,0.0,93,0.00,,,0.00,VWS V14.01,2013-07-31 05:58:00,
2013-07-31 01:59:00,66.6,64.5,30.53,NNE,12,0.0,0.0,93,0.00,,,0.00,VWS V14.01,2013-07-31 05:59:00,
2013-07-31 02:00:00,66.6,64.5,30.53,NNE,12,0.0,0.0,93,0.00,,,0.00,VWS V14.01,2013-07-31 06:00:00,
2013-07-31 02:04:00,66.6,64.5,30.53,NNE,12,0.0,0.0,93,0.00,,,0.00,VWS V14.01,2013-07-31 06:04:00,
2013-07-31 02:05:00,66.6,64.5,30.53,NNE,12,0.0,0.0,93,0.00,,,0.00,VWS V14.01,2013-07-31 06:05:00,
2013-07-31 02:06:00,66.6,64.5,30.53,NNE,12,0.0,0.0,93,0.00,,,0.00,VWS V14.01,2013-07-31 06:06:00,
2013-07-31 02:09:00,66.7,65.0,30.53,NNE,12,0.0,0.0,94,0.00,,,0.00,VWS V14.01,2013-07-31 06:09:00,
2013-07-31 02:10:00,66.7,65.0,30.53,NNE,12,0.0,0.0,94,0.00,,,0.00,VWS V14.01,2013-07-31 06:10:00,
2013-07-31 02:11:00,66.7,65.0,30.53,NNE,12,0.0,0.0,94,0.00,,,0.00,VWS V14.01,2013-07-31 06:11:00,
2013-07-31 02:14:00,66.7,65.0,30.53,NNE,12,0.0,0.0,94,0.00,,,0.00,VWS V14.01,2013-07-31 06:14:00,
2013-07-31 02:15:00,66.7,65.0,30.53,NNE,12,0.0,0.0,94,0.00,,,0.00,VWS V14.01,2013-07-31 06:15:00,
2013-07-31 02:16:00,66.7,65.0,30.53,NNE,12,0.0,0.0,94,0.00,,,0.00,VWS V14.01,2013-07-31 06:16:00,
2013-07-31 02:19:00,66.7,65.0,30.53,NNE,12,0.0,0.0,94,0.00,,,0.00,VWS V14.01,2013-07-31 06:19:00,
2013-07-31 02:20:00,66.7,65.0,30.53,NNE,12,0.0,0.0,94,0.00,,,0.00,VWS V14.01,2013-07-31 06:20:00,
2013-07-31 02:21:00,66.7,65.0,30.53,NNE,12,0.0,0.0,94,0.00,,,0.00,VWS V14.01,2013-07-31 06:21:00,
2013-07-31 02:24:00,66.7,65.0,30.53,NNE,12,0.0,0.0,94,0.00,,,0.00,VWS V14.01,2013-07-31 06:24:00,
2013-07-31 02:25:00,66.7,65.0,30.53,NNE,12,0.0,0.0,94,0.00,,,0.00,VWS V14.01,2013-07-31 06:25:00,
2013-07-31 02:26:00,66.7,65.0,30.53,NNE,12,0.0,0.0,94,0.00,,,0.00,VWS V14.01,2013-07-31 06:26:00,
2013-07-31 02:30:00,66.9,65.1,30.53,NNE,12,0.0,0.0,94,0.00,,,0.00,VWS V14.01,2013-07-31 06:30:00,
2013-07-31 02:31:00,66.9,65.1,30.53,NNE,12,0.0,0.0,94,0.00,,,0.00,VWS V14.01,2013-07-31 06:31:00,
2013-07-31 02:35:00,67.1,65.3,30.50,WSW,237,0.0,0.0,94,0.00,,,0.00,VWS V14.01,2013-07-31 06:35:00,
2013-07-31 02:37:00,67.1,65.3,30.50,WSW,237,0.0,0.0,94,0.00,,,0.00,VWS V14.01,2013-07-31 06:37:00,
2013-07-31 02:40:00,67.1,65.3,30.50,WSW,237,0.0,0.0,94,0.00,,,0.00,VWS V14.01,2013-07-31 06:40:00,
2013-07-31 02:42:00,67.1,65.0,30.50,WSW,237,0.0,0.0,93,0.00,,,0.00,VWS V14.01,2013-07-31 06:42:00,
2013-07-31 02:45:00,67.1,65.0,30.50,West,265,0.0,0.0,93,0.00,,,0.00,VWS V14.01,2013-07-31 06:45:00,
2013-07-31 02:47:00,67.1,65.0,30.50,West,265,0.0,0.0,93,0.00,,,0.00,VWS V14.01,2013-07-31 06:47:00,
2013-07-31 02:50:00,67.1,65.0,30.50,West,264,0.0,0.0,93,0.00,,,0.00,VWS V14.01,2013-07-31 06:50:00,
2013-07-31 02:52:00,67.1,65.0,30.50,West,264,0.0,0.0,93,0.00,,,0.00,VWS V14.01,2013-07-31 06:52:00,
2013-07-31 02:53:00,67.1,65.0,30.50,West,264,0.0,0.0,93,0.00,,,0.00,VWS V14.01,2013-07-31 06:53:00,
2013-07-31 02:55:00,67.1,65.0,30.50,SW,229,2.2,2.2,93,0.00,,,0.00,VWS V14.01,2013-07-31 06:55:00,
2013-07-31 02:57:00,67.3,64.9,30.50,SW,229,2.2,2.2,92,0.00,,,0.00,VWS V14.01,2013-07-31 06:57:00,
2013-07-31 02:58:00,67.3,64.9,30.50,SW,229,2.2,2.2,92,0.00,,,0.00,VWS V14.01,2013-07-31 06:58:00,
2013-07-31 03:00:00,67.3,64.9,30.50,SW,229,0.0,0.0,92,0.00,,,0.00,VWS V14.01,2013-07-31 07:00:00,
2013-07-31 03:01:00,67.3,64.9,30.50,SW,229,0.0,0.0,92,0.00,,,0.00,VWS V14.01,2013-07-31 07:01:00,
2013-07-31 03:02:00,67.3,64.9,30.50,WNW,296,0.0,0.0,92,0.00,,,0.00,VWS V14.01,2013-07-31 07:02:00,
2013-07-31 03:03:00,67.3,64.9,30.50,WNW,296,0.0,0.0,92,0.00,,,0.00,VWS V14.01,2013-07-31 07:03:00,
2013-07-31 03:06:00,67.3,64.9,30.50,WNW,296,0.0,0.0,92,0.00,,,0.00,VWS V14.01,2013-07-31 07:06:00,
2013-07-31 03:07:00,67.3,64.9,30.50,WNW,296,0.0,0.0,92,0.00,,,0.00,VWS V14.01,2013-07-31 07:07:00,
2013-07-31 03:09:00,67.3,64.9,30.50,WNW,296,0.0,0.0,92,0.00,,,0.00,VWS V14.01,2013-07-31 07:09:00,
2013-07-31 03:11:00,67.3,64.9,30.50,West,275,0.0,0.0,92,0.00,,,0.00,VWS V14.01,2013-07-31 07:11:00,
2013-07-31 03:12:00,67.3,64.9,30.53,West,275,0.0,0.0,92,0.00,,,0.00,VWS V14.01,2013-07-31 07:12:00,
2013-07-31 03:13:00,67.3,64.9,30.53,West,275,0.0,0.0,92,0.00,,,0.00,VWS V14.01,2013-07-31 07:13:00,
2013-07-31 03:14:00,67.1,64.7,30.53,West,275,0.0,0.0,92,0.00,,,0.00,VWS V14.01,2013-07-31 07:14:00,
2013-07-31 03:16:00,67.1,64.7,30.53,West,275,0.0,0.0,92,0.00,,,0.00,VWS V14.01,2013-07-31 07:16:00,
2013-07-31 03:17:00,67.1,64.7,30.53,West,275,0.0,0.0,92,0.00,,,0.00,VWS V14.01,2013-07-31 07:17:00,
2013-07-31 03:18:00,67.3,64.9,30.53,West,275,0.0,0.0,92,0.00,,,0.00,VWS V14.01,2013-07-31 07:18:00,
2013-07-31 03:19:00,67.3,64.9,30.53,West,275,0.0,0.0,92,0.00,,,0.00,VWS V14.01,2013-07-31 07:19:00,
2013-07-31 03:21:00,67.3,64.9,30.53,West,276,0.0,0.0,92,0.00,,,0.00,VWS V14.01,2013-07-31 07:21:00,
2013-07-31 03:22:00,67.3,64.9,30.53,West,276,0.0,0.0,92,0.00,,,0.00,VWS V14.01,2013-07-31 07:22:00,
2013-07-31 03:23:00,67.3,64.9,30.53,West,276,0.0,0.0,92,0.00,,,0.00,VWS V14.01,2013-07-31 07:23:00,
2013-07-31 03:24:00,67.3,65.2,30.53,West,276,0.0,0.0,93,0.00,,,0.00,VWS V14.01,2013-07-31 07:24:00,
2013-07-31 03:26:00,67.3,65.2,30.50,West,276,0.0,0.0,93,0.00,,,0.00,VWS V14.01,2013-07-31 07:26:00,
2013-07-31 03:27:00,67.3,65.2,30.50,West,276,0.0,0.0,93,0.00,,,0.00,VWS V14.01,2013-07-31 07:27:00,
2013-07-31 03:28:00,67.3,65.2,30.50,West,276,0.0,0.0,93,0.00,,,0.00,VWS V14.01,2013-07-31 07:28:00,
2013-07-31 03:29:00,67.3,65.2,30.50,West,276,0.0,0.0,93,0.00,,,0.00,VWS V14.01,2013-07-31 07:29:00,
2013-07-31 03:31:00,67.3,65.2,30.50,West,276,0.0,0.0,93,0.00,,,0.00,VWS V14.01,2013-07-31 07:31:00,
2013-07-31 03:32:00,67.3,65.2,30.50,West,276,0.0,0.0,93,0.00,,,0.00,VWS V14.01,2013-07-31 07:32:00,
2013-07-31 03:33:00,67.3,65.2,30.50,West,276,0.0,0.0,93,0.00,,,0.00,VWS V14.01,2013-07-31 07:33:00,
2013-07-31 03:34:00,67.3,65.2,30.50,West,276,0.0,0.0,93,0.00,,,0.00,VWS V14.01,2013-07-31 07:34:00,
2013-07-31 03:37:00,67.3,65.2,30.50,West,276,0.0,0.0,93,0.00,,,0.00,VWS V14.01,2013-07-31 07:37:00,
2013-07-31 03:38:00,67.3,65.2,30.50,West,276,0.0,0.0,93,0.00,,,0.00,VWS V14.01,2013-07-31 07:38:00,
2013-07-31 03:39:00,67.1,65.0,30.50,West,276,0.0,0.0,93,0.00,,,0.00,VWS V14.01,2013-07-31 07:39:00,
2013-07-31 03:42:00,67.1,65.0,30.50,West,276,0.0,0.0,93,0.00,,,0.00,VWS V14.01,2013-07-31 07:42:00,
2013-07-31 03:43:00,67.1,65.0,30.50,West,276,0.0,0.0,93,0.00,,,0.00,VWS V14.01,2013-07-31 07:43:00,
2013-07-31 03:45:00,67.1,65.0,30.50,West,276,0.0,0.0,93,0.00,,,0.00,VWS V14.01,2013-07-31 07:45:00,
2013-07-31 03:47:00,67.1,65.0,30.50,West,274,0.0,0.0,93,0.00,,,0.00,VWS V14.01,2013-07-31 07:47:00,
2013-07-31 03:48:00,67.1,65.0,30.50,West,274,0.0,0.0,93,0.00,,,0.00,VWS V14.01,2013-07-31 07:48:00,
2013-07-31 03:50:00,67.1,65.0,30.50,West,274,0.0,0.0,93,0.00,,,0.00,VWS V14.01,2013-07-31 07:50:00,
2013-07-31 03:52:00,67.1,65.0,30.50,West,274,0.0,0.0,93,0.00,,,0.00,VWS V14.01,2013-07-31 07:52:00,
2013-07-31 03:53:00,67.1,65.0,30.50,West,274,0.0,0.0,93,0.00,,,0.00,VWS V14.01,2013-07-31 07:53:00,
2013-07-31 03:54:00,67.1,65.0,30.50,West,274,0.0,0.0,93,0.00,,,0.00,VWS V14.01,2013-07-31 07:54:00,
2013-07-31 03:55:00,67.1,65.0,30.50,West,274,0.0,0.0,93,0.00,,,0.00,VWS V14.01,2013-07-31 07:55:00,
2013-07-31 03:57:00,67.1,65.3,30.47,West,274,0.0,0.0,94,0.00,,,0.00,VWS V14.01,2013-07-31 07:57:00,
2013-07-31 03:58:00,67.1,65.3,30.47,West,274,0.0,0.0,94,0.00,,,0.00,VWS V14.01,2013-07-31 07:58:00,
2013-07-31 03:59:00,67.1,65.3,30.47,West,274,0.0,0.0,94,0.00,,,0.00,VWS V14.01,2013-07-31 07:59:00,
2013-07-31 04:00:00,67.1,65.3,30.47,West,274,0.0,0.0,94,0.00,,,0.00,VWS V14.01,2013-07-31 08:00:00,
2013-07-31 04:02:00,67.1,65.3,30.47,West,274,0.0,0.0,94,0.00,,,0.00,VWS V14.01,2013-07-31 08:02:00,
2013-07-31 04:03:00,67.1,65.3,30.47,West,274,0.0,0.0,94,0.00,,,0.00,VWS V14.01,2013-07-31 08:03:00,
2013-07-31 04:04:00,67.1,65.3,30.47,West,274,0.0,0.0,94,0.00,,,0.00,VWS V14.01,2013-07-31 08:04:00,
2013-07-31 04:05:00,67.1,65.3,30.47,West,274,0.0,0.0,94,0.00,,,0.00,VWS V14.01,2013-07-31 08:05:00,
2013-07-31 04:07:00,67.1,65.3,30.47,West,274,0.0,0.0,94,0.00,,,0.00,VWS V14.01,2013-07-31 08:07:00,
2013-07-31 04:08:00,67.1,65.3,30.47,West,274,0.0,0.0,94,0.00,,,0.00,VWS V14.01,2013-07-31 08:08:00,
2013-07-31 04:09:00,67.1,65.3,30.47,West,274,0.0,0.0,94,0.00,,,0.00,VWS V14.01,2013-07-31 08:09:00,
2013-07-31 04:10:00,67.1,65.3,30.50,West,274,0.0,0.0,94,0.00,,,0.00,VWS V14.01,2013-07-31 08:10:00,
2013-07-31 04:12:00,67.1,65.3,30.50,West,274,0.0,0.0,94,0.00,,,0.00,VWS V14.01,2013-07-31 08:12:00,
2013-07-31 04:14:00,67.1,65.3,30.50,West,274,0.0,0.0,94,0.00,,,0.00,VWS V14.01,2013-07-31 08:14:00,
2013-07-31 04:15:00,67.1,65.3,30.50,West,274,0.0,0.0,94,0.00,,,0.00,VWS V14.01,2013-07-31 08:15:00,
2013-07-31 04:17:00,66.9,65.4,30.50,West,274,0.0,0.0,95,0.00,,,0.00,VWS V14.01,2013-07-31 08:17:00,
2013-07-31 04:19:00,66.9,65.4,30.50,West,274,0.0,0.0,95,0.00,,,0.00,VWS V14.01,2013-07-31 08:19:00,
2013-07-31 04:21:00,66.9,65.4,30.50,West,274,0.0,0.0,95,0.00,,,0.00,VWS V14.01,2013-07-31 08:21:00,
2013-07-31 04:23:00,66.9,65.8,30.50,West,274,0.0,0.0,96,0.00,,,0.00,VWS V14.01,2013-07-31 08:23:00,
2013-07-31 04:24:00,66.9,65.8,30.50,West,274,0.0,0.0,96,0.00,,,0.00,VWS V14.01,2013-07-31 08:24:00,
2013-07-31 04:26:00,66.9,65.8,30.50,West,274,0.0,0.0,96,0.00,,,0.00,VWS V14.01,2013-07-31 08:26:00,
2013-07-31 04:28:00,66.7,65.6,30.50,West,274,0.0,0.0,96,0.00,,,0.00,VWS V14.01,2013-07-31 08:28:00,
2013-07-31 04:29:00,66.7,65.6,30.50,West,274,0.0,0.0,96,0.00,,,0.00,VWS V14.01,2013-07-31 08:29:00,
2013-07-31 04:30:00,66.7,65.6,30.50,West,274,0.0,0.0,96,0.00,,,0.00,VWS V14.01,2013-07-31 08:30:00,
2013-07-31 04:31:00,66.7,65.9,30.47,West,274,0.0,0.0,97,0.00,,,0.00,VWS V14.01,2013-07-31 08:31:00,
2013-07-31 04:33:00,66.7,66.2,30.47,West,274,0.0,0.0,98,0.00,,,0.00,VWS V14.01,2013-07-31 08:33:00,
2013-07-31 04:34:00,66.7,66.2,30.47,West,274,0.0,0.0,98,0.00,,,0.00,VWS V14.01,2013-07-31 08:34:00,
2013-07-31 04:35:00,66.7,66.2,30.47,West,274,0.0,0.0,98,0.00,,,0.00,VWS V14.01,2013-07-31 08:35:00,
2013-07-31 04:37:00,66.7,66.2,30.47,West,274,0.0,0.0,98,0.00,,,0.00,VWS V14.01,2013-07-31 08:37:00,
2013-07-31 04:38:00,66.7,66.2,30.47,West,274,0.0,0.0,98,0.00,,,0.00,VWS V14.01,2013-07-31 08:38:00,
2013-07-31 04:39:00,66.7,66.2,30.47,West,274,0.0,0.0,98,0.00,,,0.00,VWS V14.01,2013-07-31 08:39:00,
2013-07-31 04:40:00,66.6,66.3,30.47,West,274,0.0,0.0,99,0.00,,,0.00,VWS V14.01,2013-07-31 08:40:00,
2013-07-31 04:42:00,66.6,66.3,30.47,West,274,0.0,0.0,99,0.00,,,0.00,VWS V14.01,2013-07-31 08:42:00,
2013-07-31 04:43:00,66.6,66.3,30.50,West,274,0.0,0.0,99,0.00,,,0.00,VWS V14.01,2013-07-31 08:43:00,
2013-07-31 04:44:00,66.6,66.3,30.50,West,274,0.0,0.0,99,0.00,,,0.00,VWS V14.01,2013-07-31 08:44:00,
2013-07-31 04:45:00,66.6,66.6,30.50,West,274,0.0,0.0,100,0.00,,,0.00,VWS V14.01,2013-07-31 08:45:00,
2013-07-31 04:47:00,66.6,66.6,30.50,West,274,0.0,0.0,100,0.00,,,0.00,VWS V14.01,2013-07-31 08:47:00,
2013-07-31 04:49:00,66.6,66.6,30.50,West,274,0.0,0.0,100,0.00,,,0.00,VWS V14.01,2013-07-31 08:49:00,
2013-07-31 04:50:00,66.6,66.6,30.50,West,274,0.0,0.0,100,0.00,,,0.00,VWS V14.01,2013-07-31 08:50:00,
2013-07-31 04:52:00,66.6,66.6,30.50,West,274,0.0,0.0,100,0.00,,,0.00,VWS V14.01,2013-07-31 08:52:00,
2013-07-31 04:54:00,66.6,66.6,30.50,West,274,0.0,0.0,100,0.00,,,0.00,VWS V14.01,2013-07-31 08:54:00,
2013-07-31 04:55:00,66.6,66.6,30.50,West,274,0.0,0.0,100,0.00,,,0.00,VWS V14.01,2013-07-31 08:55:00,
2013-07-31 04:56:00,66.6,66.6,30.50,West,274,0.0,0.0,100,0.00,,,0.00,VWS V14.01,2013-07-31 08:56:00,
2013-07-31 04:57:00,66.6,66.6,30.50,West,274,0.0,0.0,100,0.00,,,0.00,VWS V14.01,2013-07-31 08:57:00,
2013-07-31 04:59:00,66.6,66.6,30.50,West,274,0.0,0.0,100,0.00,,,0.00,VWS V14.01,2013-07-31 08:59:00,
2013-07-31 05:00:00,66.6,66.6,30.50,West,274,0.0,0.0,100,0.00,,,0.00,VWS V14.01,2013-07-31 09:00:00,
2013-07-31 05:01:00,66.6,66.6,30.50,West,274,0.0,0.0,100,0.00,,,0.00,VWS V14.01,2013-07-31 09:01:00,
2013-07-31 05:02:00,66.6,66.6,30.50,West,274,0.0,0.0,100,0.00,,,0.00,VWS V14.01,2013-07-31 09:02:00,
2013-07-31 05:04:00,66.6,66.6,30.50,West,274,0.0,0.0,100,0.00,,,0.00,VWS V14.01,2013-07-31 09:04:00,
2013-07-31 05:05:00,66.6,66.6,30.50,West,274,0.0,0.0,100,0.00,,,0.00,VWS V14.01,2013-07-31 09:05:00,
2013-07-31 05:06:00,66.4,66.4,30.50,West,274,0.0,0.0,100,0.00,,,0.00,VWS V14.01,2013-07-31 09:06:00,
2013-07-31 05:07:00,66.4,66.4,30.50,West,274,0.0,0.0,100,0.00,,,0.00,VWS V14.01,2013-07-31 09:07:00,
2013-07-31 05:09:00,66.4,66.4,30.50,West,274,0.0,0.0,100,0.00,,,0.00,VWS V14.01,2013-07-31 09:09:00,
2013-07-31 05:10:00,66.4,66.4,30.50,West,274,0.0,0.0,100,0.00,,,0.00,VWS V14.01,2013-07-31 09:10:00,
2013-07-31 05:11:00,66.4,66.4,30.50,West,274,0.0,0.0,100,0.00,,,0.00,VWS V14.01,2013-07-31 09:11:00,
2013-07-31 05:12:00,66.4,66.4,30.45,West,274,0.0,0.0,100,0.00,,,0.00,VWS V14.01,2013-07-31 09:12:00,
2013-07-31 05:14:00,66.4,66.4,30.45,West,274,0.0,0.0,100,0.00,,,0.00,VWS V14.01,2013-07-31 09:14:00,
2013-07-31 05:15:00,66.4,66.4,30.45,West,274,0.0,0.0,100,0.00,,,0.00,VWS V14.01,2013-07-31 09:15:00,
2013-07-31 05:16:00,66.4,66.4,30.45,West,274,0.0,0.0,100,0.00,,,0.00,VWS V14.01,2013-07-31 09:16:00,
2013-07-31 05:17:00,66.4,66.4,30.45,West,274,0.0,0.0,100,0.00,,,0.00,VWS V14.01,2013-07-31 09:17:00,
2013-07-31 05:18:00,66.4,66.4,30.45,West,274,0.0,0.0,100,0.00,,,0.00,VWS V14.01,2013-07-31 09:18:00,
2013-07-31 05:19:00,66.4,66.4,30.45,West,274,0.0,0.0,100,0.00,,,0.00,VWS V14.01,2013-07-31 09:19:00,
2013-07-31 05:20:00,66.4,66.4,30.45,West,274,0.0,0.0,100,0.00,,,0.00,VWS V14.01,2013-07-31 09:20:00,
2013-07-31 05:21:00,66.4,66.4,30.45,West,274,0.0,0.0,100,0.00,,,0.00,VWS V14.01,2013-07-31 09:21:00,
2013-07-31 05:22:00,66.4,66.4,30.45,West,274,0.0,0.0,100,0.00,,,0.00,VWS V14.01,2013-07-31 09:22:00,
2013-07-31 05:23:00,66.4,66.4,30.45,West,274,0.0,0.0,100,0.00,,,0.00,VWS V14.01,2013-07-31 09:23:00,
2013-07-31 05:24:00,66.4,66.4,30.45,West,274,0.0,0.0,100,0.00,,,0.00,VWS V14.01,2013-07-31 09:24:00,
2013-07-31 05:25:00,66.4,66.4,30.45,West,274,0.0,0.0,100,0.00,,,0.00,VWS V14.01,2013-07-31 09:25:00,
2013-07-31 05:26:00,66.4,66.4,30.45,West,274,0.0,0.0,100,0.00,,,0.00,VWS V14.01,2013-07-31 09:26:00,
2013-07-31 05:27:00,66.4,66.4,30.45,West,274,0.0,0.0,100,0.00,,,0.00,VWS V14.01,2013-07-31 09:27:00,
2013-07-31 05:28:00,66.4,66.4,30.45,West,274,0.0,0.0,100,0.00,,,0.00,VWS V14.01,2013-07-31 09:28:00,
2013-07-31 05:30:00,66.4,66.4,30.45,West,274,0.0,0.0,100,0.00,,,0.00,VWS V14.01,2013-07-31 09:30:00,
2013-07-31 05:31:00,66.4,66.4,30.45,West,274,0.0,0.0,100,0.00,,,0.00,VWS V14.01,2013-07-31 09:31:00,
2013-07-31 05:32:00,66.2,66.2,30.45,West,274,0.0,0.0,100,0.00,,,0.00,VWS V14.01,2013-07-31 09:32:00,
2013-07-31 05:33:00,66.2,66.2,30.45,West,274,0.0,0.0,100,0.00,,,0.00,VWS V14.01,2013-07-31 09:33:00,
2013-07-31 05:35:00,66.2,66.2,30.45,West,274,0.0,0.0,100,0.00,,,0.00,VWS V14.01,2013-07-31 09:35:00,
2013-07-31 05:36:00,66.2,66.2,30.45,West,274,0.0,0.0,100,0.00,,,0.00,VWS V14.01,2013-07-31 09:36:00,
2013-07-31 05:37:00,66.2,66.2,30.45,West,274,0.0,0.0,100,0.00,,,0.00,VWS V14.01,2013-07-31 09:37:00,
2013-07-31 05:38:00,66.2,66.2,30.45,West,274,0.0,0.0,100,0.00,,,0.00,VWS V14.01,2013-07-31 09:38:00,
2013-07-31 05:40:00,66.2,66.2,30.45,West,274,0.0,0.0,100,0.00,,,0.00,VWS V14.01,2013-07-31 09:40:00,
2013-07-31 05:41:00,66.2,66.2,30.45,West,274,0.0,0.0,100,0.00,,,0.00,VWS V14.01,2013-07-31 09:41:00,
2013-07-31 05:42:00,66.2,66.2,30.47,West,274,0.0,0.0,100,0.00,,,0.00,VWS V14.01,2013-07-31 09:42:00,
2013-07-31 05:43:00,66.2,66.2,30.47,West,274,0.0,0.0,100,0.00,,,0.00,VWS V14.01,2013-07-31 09:43:00,
2013-07-31 05:45:00,66.0,66.0,30.47,West,274,0.0,0.0,100,0.00,,,0.00,VWS V14.01,2013-07-31 09:45:00,
2013-07-31 05:46:00,66.0,66.0,30.47,West,274,0.0,0.0,100,0.00,,,0.00,VWS V14.01,2013-07-31 09:46:00,
2013-07-31 05:47:00,66.0,66.0,30.47,West,274,0.0,0.0,100,0.00,,,0.00,VWS V14.01,2013-07-31 09:47:00,
2013-07-31 05:49:00,66.0,66.0,30.47,West,274,0.0,0.0,100,0.00,,,0.00,VWS V14.01,2013-07-31 09:49:00,
2013-07-31 05:50:00,66.0,66.0,30.47,West,274,0.0,0.0,100,0.00,,,0.00,VWS V14.01,2013-07-31 09:50:00,
2013-07-31 05:51:00,66.0,66.0,30.47,West,274,0.0,0.0,100,0.00,,,0.00,VWS V14.01,2013-07-31 09:51:00,
2013-07-31 05:52:00,66.0,66.0,30.47,West,274,0.0,0.0,100,0.00,,,0.00,VWS V14.01,2013-07-31 09:52:00,
2013-07-31 05:53:00,66.0,66.0,30.47,West,274,0.0,0.0,100,0.00,,,0.00,VWS V14.01,2013-07-31 09:53:00,
2013-07-31 05:54:00,66.0,66.0,30.47,West,274,0.0,0.0,100,0.00,,,0.00,VWS V14.01,2013-07-31 09:54:00,
2013-07-31 05:55:00,66.0,66.0,30.47,West,274,0.0,0.0,100,0.00,,,0.00,VWS V14.01,2013-07-31 09:55:00,
2013-07-31 05:56:00,66.0,66.0,30.47,West,274,0.0,0.0,100,0.00,,,0.00,VWS V14.01,2013-07-31 09:56:00,
2013-07-31 05:57:00,66.0,66.0,30.47,West,274,0.0,0.0,100,0.00,,,0.00,VWS V14.01,2013-07-31 09:57:00,
2013-07-31 05:58:00,66.0,66.0,30.47,West,274,0.0,0.0,100,0.00,,,0.00,VWS V14.01,2013-07-31 09:58:00,
2013-07-31 06:00:00,66.0,66.0,30.47,West,274,0.0,0.0,100,0.04,,,0.04,VWS V14.01,2013-07-31 10:00:00,
2013-07-31 06:02:00,66.0,66.0,30.47,West,274,0.0,0.0,100,0.04,,,0.04,VWS V14.01,2013-07-31 10:02:00,
2013-07-31 06:03:00,66.0,66.0,30.47,West,274,0.0,0.0,100,0.04,,,0.04,VWS V14.01,2013-07-31 10:03:00,
2013-07-31 06:05:00,66.0,66.0,30.47,West,274,0.0,0.0,100,0.04,,,0.04,VWS V14.01,2013-07-31 10:05:00,
2013-07-31 06:07:00,66.0,66.0,30.47,West,274,0.0,0.0,100,0.04,,,0.04,VWS V14.01,2013-07-31 10:07:00,
2013-07-31 06:08:00,66.0,66.0,30.47,West,274,0.0,0.0,100,0.04,,,0.04,VWS V14.01,2013-07-31 10:08:00,
2013-07-31 06:10:00,66.0,66.0,30.47,West,274,0.0,0.0,100,0.04,,,0.04,VWS V14.01,2013-07-31 10:10:00,
2013-07-31 06:12:00,66.0,66.0,30.47,West,274,0.0,0.0,100,0.04,,,0.04,VWS V14.01,2013-07-31 10:12:00,
2013-07-31 06:13:00,66.0,66.0,30.47,West,274,0.0,0.0,100,0.04,,,0.04,VWS V14.01,2013-07-31 10:13:00,
2013-07-31 06:15:00,66.0,66.0,30.47,West,274,0.0,0.0,100,0.04,,,0.04,VWS V14.01,2013-07-31 10:15:00,
2013-07-31 06:17:00,66.0,66.0,30.47,West,274,0.0,0.0,100,0.04,,,0.04,VWS V14.01,2013-07-31 10:17:00,
2013-07-31 06:18:00,66.0,66.0,30.47,West,274,0.0,0.0,100,0.04,,,0.04,VWS V14.01,2013-07-31 10:18:00,
2013-07-31 06:20:00,66.0,66.0,30.47,West,274,0.0,0.0,100,0.04,,,0.04,VWS V14.01,2013-07-31 10:20:00,
2013-07-31 06:21:00,66.0,66.0,30.47,West,274,0.0,0.0,100,0.04,,,0.04,VWS V14.01,2013-07-31 10:21:00,
2013-07-31 06:22:00,66.0,66.0,30.47,West,274,0.0,0.0,100,0.04,,,0.04,VWS V14.01,2013-07-31 10:22:00,
2013-07-31 06:24:00,66.0,66.0,30.47,West,274,0.0,0.0,100,0.04,,,0.04,VWS V14.01,2013-07-31 10:24:00,
2013-07-31 06:25:00,66.0,66.0,30.47,West,274,0.0,0.0,100,0.04,,,0.04,VWS V14.01,2013-07-31 10:25:00,
2013-07-31 06:26:00,66.0,66.0,30.50,West,274,0.0,0.0,100,0.04,,,0.04,VWS V14.01,2013-07-31 10:26:00,
2013-07-31 06:27:00,66.0,66.0,30.50,West,274,0.0,0.0,100,0.04,,,0.04,VWS V14.01,2013-07-31 10:27:00,
2013-07-31 06:28:00,66.0,66.0,30.50,West,274,0.0,0.0,100,0.04,,,0.04,VWS V14.01,2013-07-31 10:28:00,
2013-07-31 06:29:00,66.0,66.0,30.50,West,274,0.0,0.0,100,0.04,,,0.04,VWS V14.01,2013-07-31 10:29:00,
2013-07-31 06:30:00,66.0,66.0,30.50,West,274,0.0,0.0,100,0.04,,,0.04,VWS V14.01,2013-07-31 10:30:00,
2013-07-31 06:31:00,66.0,66.0,30.50,West,274,0.0,0.0,100,0.04,,,0.04,VWS V14.01,2013-07-31 10:31:00,
2013-07-31 06:32:00,66.0,66.0,30.50,West,274,0.0,0.0,100,0.04,,,0.04,VWS V14.01,2013-07-31 10:32:00,
2013-07-31 06:33:00,66.0,66.0,30.50,WSW,247,2.7,2.7,100,0.04,,,0.04,VWS V14.01,2013-07-31 10:33:00,
2013-07-31 06:34:00,66.0,66.0,30.50,WSW,247,2.7,2.7,100,0.04,,,0.04,VWS V14.01,2013-07-31 10:34:00,
2013-07-31 06:35:00,66.0,66.0,30.50,WSW,247,2.7,2.7,100,0.04,,,0.04,VWS V14.01,2013-07-31 10:35:00,
2013-07-31 06:37:00,66.0,66.0,30.50,NW,309,0.0,2.7,100,0.04,,,0.04,VWS V14.01,2013-07-31 10:37:00,
2013-07-31 06:38:00,66.0,66.0,30.50,NW,309,0.0,0.0,100,0.04,,,0.04,VWS V14.01,2013-07-31 10:38:00,
2013-07-31 06:39:00,66.0,66.0,30.50,NW,309,0.0,0.0,100,0.04,,,0.04,VWS V14.01,2013-07-31 10:39:00,
2013-07-31 06:40:00,66.0,66.0,30.50,NW,309,0.0,0.0,100,0.04,,,0.04,VWS V14.01,2013-07-31 10:40:00,
2013-07-31 06:42:00,65.8,65.8,30.47,WSW,253,2.2,2.2,100,0.04,,,0.04,VWS V14.01,2013-07-31 10:42:00,
2013-07-31 06:43:00,65.8,65.8,30.47,WSW,253,2.2,2.2,100,0.04,,,0.04,VWS V14.01,2013-07-31 10:43:00,
2013-07-31 06:44:00,65.8,65.8,30.47,WSW,253,2.2,2.2,100,0.04,,,0.04,VWS V14.01,2013-07-31 10:44:00,
2013-07-31 06:45:00,65.8,65.8,30.47,WSW,253,2.2,2.2,100,0.04,,,0.04,VWS V14.01,2013-07-31 10:45:00,
2013-07-31 06:47:00,65.8,65.8,30.47,WSW,250,0.0,0.0,100,0.04,,,0.04,VWS V14.01,2013-07-31 10:47:00,
2013-07-31 06:48:00,65.8,65.8,30.47,WSW,250,0.0,0.0,100,0.04,,,0.04,VWS V14.01,2013-07-31 10:48:00,
2013-07-31 06:50:00,65.8,65.8,30.47,WSW,250,0.0,0.0,100,0.04,,,0.04,VWS V14.01,2013-07-31 10:50:00,
2013-07-31 06:52:00,65.8,65.8,30.47,WSW,250,0.0,0.0,100,0.04,,,0.04,VWS V14.01,2013-07-31 10:52:00,
2013-07-31 06:53:00,65.8,65.8,30.47,WSW,250,0.0,0.0,100,0.04,,,0.04,VWS V14.01,2013-07-31 10:53:00,
2013-07-31 06:55:00,65.8,65.8,30.47,WSW,250,0.0,0.0,100,0.04,,,0.04,VWS V14.01,2013-07-31 10:55:00,
2013-07-31 06:57:00,65.8,65.8,30.50,WSW,249,0.0,0.0,100,0.04,,,0.04,VWS V14.01,2013-07-31 10:57:00,
2013-07-31 06:58:00,65.8,65.8,30.50,WSW,249,0.0,0.0,100,0.04,,,0.04,VWS V14.01,2013-07-31 10:58:00,
2013-07-31 06:59:00,65.8,65.8,30.50,WSW,249,0.0,0.0,100,0.04,,,0.04,VWS V14.01,2013-07-31 10:59:00,
2013-07-31 07:00:00,65.8,65.8,30.50,WSW,249,0.0,0.0,100,0.00,,,0.04,VWS V14.01,2013-07-31 11:00:00,
2013-07-31 07:03:00,65.8,65.8,30.50,WSW,249,0.0,0.0,100,0.00,,,0.04,VWS V14.01,2013-07-31 11:03:00,
2013-07-31 07:04:00,65.8,65.8,30.50,WSW,250,0.0,0.0,100,0.00,,,0.04,VWS V14.01,2013-07-31 11:04:00,
2013-07-31 07:05:00,65.8,65.8,30.50,WSW,250,0.0,0.0,100,0.00,,,0.04,VWS V14.01,2013-07-31 11:05:00,
2013-07-31 07:06:00,65.8,65.8,30.50,WSW,250,0.0,0.0,100,0.00,,,0.04,VWS V14.01,2013-07-31 11:06:00,
2013-07-31 07:08:00,65.8,65.8,30.50,WNW,293,2.7,2.7,100,0.00,,,0.04,VWS V14.01,2013-07-31 11:08:00,
2013-07-31 07:09:00,65.8,65.8,30.50,WNW,293,2.7,2.7,100,0.00,,,0.04,VWS V14.01,2013-07-31 11:09:00,
2013-07-31 07:10:00,65.8,65.8,30.50,WNW,293,2.7,2.7,100,0.00,,,0.04,VWS V14.01,2013-07-31 11:10:00,
2013-07-31 07:12:00,65.8,65.8,30.47,West,277,0.0,0.0,100,0.00,,,0.04,VWS V14.01,2013-07-31 11:12:00,
2013-07-31 07:13:00,65.8,65.8,30.47,West,275,0.0,0.0,100,0.00,,,0.04,VWS V14.01,2013-07-31 11:13:00,
2013-07-31 07:14:00,65.8,65.8,30.47,West,274,2.7,2.7,100,0.00,,,0.04,VWS V14.01,2013-07-31 11:14:00,
2013-07-31 07:15:00,65.8,65.8,30.47,West,274,2.7,2.7,100,0.00,,,0.04,VWS V14.01,2013-07-31 11:15:00,
2013-07-31 07:17:00,65.8,65.8,30.47,West,274,2.7,2.7,100,0.00,,,0.04,VWS V14.01,2013-07-31 11:17:00,
2013-07-31 07:18:00,65.8,65.8,30.47,West,274,2.7,2.7,100,0.00,,,0.04,VWS V14.01,2013-07-31 11:18:00,
2013-07-31 07:19:00,65.8,65.8,30.47,West,274,2.7,2.7,100,0.00,,,0.04,VWS V14.01,2013-07-31 11:19:00,
2013-07-31 07:20:00,65.8,65.8,30.47,West,274,2.7,2.7,100,0.00,,,0.04,VWS V14.01,2013-07-31 11:20:00,
2013-07-31 07:22:00,65.8,65.8,30.47,SW,215,0.0,2.7,100,0.00,,,0.04,VWS V14.01,2013-07-31 11:22:00,
2013-07-31 07:23:00,65.8,65.8,30.47,SW,215,0.0,0.0,100,0.00,,,0.04,VWS V14.01,2013-07-31 11:23:00,
2013-07-31 07:24:00,65.8,65.8,30.47,SW,215,0.0,0.0,100,0.00,,,0.04,VWS V14.01,2013-07-31 11:24:00,
2013-07-31 07:25:00,65.8,65.8,30.47,SW,215,0.0,0.0,100,0.00,,,0.04,VWS V14.01,2013-07-31 11:25:00,
2013-07-31 07:27:00,65.8,65.8,30.47,SW,215,0.0,0.0,100,0.04,,,0.08,VWS V14.01,2013-07-31 11:27:00,
2013-07-31 07:28:00,65.8,65.8,30.47,SW,215,0.0,0.0,100,0.04,,,0.08,VWS V14.01,2013-07-31 11:28:00,
2013-07-31 07:29:00,65.8,65.8,30.47,SW,215,3.1,3.1,100,0.04,,,0.08,VWS V14.01,2013-07-31 11:29:00,
2013-07-31 07:30:00,65.8,65.8,30.47,SW,215,3.1,3.1,100,0.04,,,0.08,VWS V14.01,2013-07-31 11:30:00,
2013-07-31 07:32:00,65.8,65.8,30.47,SW,215,0.0,0.0,100,0.04,,,0.08,VWS V14.01,2013-07-31 11:32:00,
2013-07-31 07:33:00,65.8,65.8,30.47,SW,215,0.0,0.0,100,0.04,,,0.08,VWS V14.01,2013-07-31 11:33:00,
2013-07-31 07:34:00,65.8,65.8,30.47,SW,215,0.0,0.0,100,0.04,,,0.08,VWS V14.01,2013-07-31 11:34:00,
2013-07-31 07:35:00,65.8,65.8,30.47,SW,215,0.0,0.0,100,0.04,,,0.08,VWS V14.01,2013-07-31 11:35:00,
2013-07-31 07:36:00,65.8,65.8,30.47,SW,215,0.0,0.0,100,0.04,,,0.08,VWS V14.01,2013-07-31 11:36:00,
2013-07-31 07:37:00,65.8,65.8,30.47,SW,215,0.0,0.0,100,0.04,,,0.08,VWS V14.01,2013-07-31 11:37:00,
2013-07-31 07:38:00,65.8,65.8,30.47,SW,215,0.0,0.0,100,0.04,,,0.08,VWS V14.01,2013-07-31 11:38:00,
2013-07-31 07:39:00,65.8,65.8,30.47,SW,215,0.0,0.0,100,0.04,,,0.08,VWS V14.01,2013-07-31 11:39:00,
2013-07-31 07:40:00,65.8,65.8,30.47,SW,215,2.7,2.7,100,0.04,,,0.08,VWS V14.01,2013-07-31 11:40:00,
2013-07-31 07:41:00,65.8,65.8,30.47,SW,215,2.7,2.7,100,0.04,,,0.08,VWS V14.01,2013-07-31 11:41:00,
2013-07-31 07:42:00,65.8,65.8,30.50,SW,215,2.7,2.7,100,0.04,,,0.08,VWS V14.01,2013-07-31 11:42:00,
2013-07-31 07:44:00,65.8,65.8,30.50,SW,215,2.7,2.7,100,0.04,,,0.08,VWS V14.01,2013-07-31 11:44:00,
2013-07-31 07:45:00,65.8,65.8,30.50,SW,215,0.0,0.0,100,0.04,,,0.08,VWS V14.01,2013-07-31 11:45:00,
2013-07-31 07:47:00,65.8,65.8,30.50,SW,215,0.0,0.0,100,0.04,,,0.08,VWS V14.01,2013-07-31 11:47:00,
2013-07-31 07:49:00,65.8,65.8,30.50,SW,215,0.0,0.0,100,0.04,,,0.08,VWS V14.01,2013-07-31 11:49:00,
2013-07-31 07:50:00,65.8,65.8,30.50,SW,215,0.0,0.0,100,0.04,,,0.08,VWS V14.01,2013-07-31 11:50:00,
2013-07-31 07:52:00,65.8,65.8,30.50,SW,215,0.0,0.0,100,0.04,,,0.08,VWS V14.01,2013-07-31 11:52:00,
2013-07-31 07:54:00,66.0,66.0,30.50,SW,215,0.0,0.0,100,0.04,,,0.08,VWS V14.01,2013-07-31 11:54:00,
2013-07-31 07:55:00,66.0,66.0,30.47,SW,215,0.0,0.0,100,0.04,,,0.08,VWS V14.01,2013-07-31 11:55:00,
2013-07-31 07:57:00,66.0,66.0,30.47,SW,215,2.7,2.7,100,0.04,,,0.08,VWS V14.01,2013-07-31 11:57:00,
2013-07-31 07:58:00,66.0,66.0,30.47,SW,215,2.2,2.2,100,0.04,,,0.08,VWS V14.01,2013-07-31 11:58:00,
2013-07-31 07:59:00,66.0,66.0,30.47,SW,215,2.2,2.2,100,0.04,,,0.08,VWS V14.01,2013-07-31 11:59:00,
2013-07-31 08:00:00,66.0,66.0,30.47,SW,215,2.2,2.2,100,0.04,,,0.08,VWS V14.01,2013-07-31 12:00:00,
2013-07-31 08:02:00,66.0,66.0,30.47,SW,215,0.0,0.0,100,0.04,,,0.08,VWS V14.01,2013-07-31 12:02:00,
2013-07-31 08:03:00,66.0,66.0,30.47,SW,215,0.0,0.0,100,0.04,,,0.08,VWS V14.01,2013-07-31 12:03:00,
2013-07-31 08:05:00,66.0,66.0,30.47,SW,215,0.0,0.0,100,0.04,,,0.08,VWS V14.01,2013-07-31 12:05:00,
2013-07-31 08:07:00,66.0,66.0,30.47,SW,215,0.0,0.0,100,0.04,,,0.08,VWS V14.01,2013-07-31 12:07:00,
2013-07-31 08:08:00,66.0,66.0,30.47,SW,215,0.0,0.0,100,0.04,,,0.08,VWS V14.01,2013-07-31 12:08:00,
2013-07-31 08:10:00,66.0,66.0,30.47,SW,215,0.0,0.0,100,0.04,,,0.08,VWS V14.01,2013-07-31 12:10:00,
2013-07-31 08:12:00,66.0,66.0,30.45,SW,215,0.0,0.0,100,0.04,,,0.08,VWS V14.01,2013-07-31 12:12:00,
2013-07-31 08:13:00,66.0,66.0,30.45,SW,215,0.0,0.0,100,0.04,,,0.08,VWS V14.01,2013-07-31 12:13:00,
2013-07-31 08:15:00,66.0,66.0,30.45,SW,215,0.0,0.0,100,0.04,,,0.08,VWS V14.01,2013-07-31 12:15:00,
2013-07-31 08:17:00,66.0,66.0,30.45,WSW,253,0.0,0.0,100,0.04,,,0.08,VWS V14.01,2013-07-31 12:17:00,
2013-07-31 08:18:00,66.0,66.0,30.45,WSW,253,0.0,0.0,100,0.04,,,0.08,VWS V14.01,2013-07-31 12:18:00,
2013-07-31 08:20:00,66.0,66.0,30.45,WSW,237,0.0,0.0,100,0.04,,,0.08,VWS V14.01,2013-07-31 12:20:00,
2013-07-31 08:22:00,66.0,66.0,30.45,WSW,237,0.0,0.0,100,0.04,,,0.08,VWS V14.01,2013-07-31 12:22:00,
2013-07-31 08:23:00,66.0,66.0,30.45,WSW,237,0.0,0.0,100,0.04,,,0.08,VWS V14.01,2013-07-31 12:23:00,
2013-07-31 08:25:00,66.2,66.2,30.45,WSW,237,0.0,0.0,100,0.04,,,0.08,VWS V14.01,2013-07-31 12:25:00,
2013-07-31 08:26:00,66.2,66.2,30.45,WSW,237,0.0,0.0,100,0.04,,,0.08,VWS V14.01,2013-07-31 12:26:00,
2013-07-31 08:27:00,66.2,66.2,30.45,WSW,237,0.0,0.0,100,0.00,,,0.08,VWS V14.01,2013-07-31 12:27:00,
2013-07-31 08:28:00,66.2,66.2,30.45,West,265,2.2,2.2,100,0.00,,,0.08,VWS V14.01,2013-07-31 12:28:00,
2013-07-31 08:30:00,66.2,66.2,30.45,West,265,2.2,2.2,100,0.00,,,0.08,VWS V14.01,2013-07-31 12:30:00,
2013-07-31 08:31:00,66.2,66.2,30.45,West,266,3.1,3.1,100,0.00,,,0.08,VWS V14.01,2013-07-31 12:31:00,
2013-07-31 08:32:00,66.2,66.2,30.45,West,266,0.0,0.0,100,0.00,,,0.08,VWS V14.01,2013-07-31 12:32:00,
2013-07-31 08:33:00,66.2,66.2,30.45,WNW,295,3.6,3.6,100,0.00,,,0.08,VWS V14.01,2013-07-31 12:33:00,
2013-07-31 08:35:00,66.2,66.2,30.45,WNW,295,3.6,3.6,100,0.00,,,0.08,VWS V14.01,2013-07-31 12:35:00,
2013-07-31 08:36:00,66.2,66.2,30.45,WNW,295,3.6,3.6,100,0.00,,,0.08,VWS V14.01,2013-07-31 12:36:00,
2013-07-31 08:37:00,66.2,66.2,30.45,WNW,295,3.6,3.6,100,0.00,,,0.08,VWS V14.01,2013-07-31 12:37:00,
2013-07-31 08:38:00,66.2,66.2,30.45,WNW,295,3.6,3.6,100,0.00,,,0.08,VWS V14.01,2013-07-31 12:38:00,
2013-07-31 08:39:00,66.2,66.2,30.45,WNW,295,3.6,3.6,100,0.00,,,0.08,VWS V14.01,2013-07-31 12:39:00,
2013-07-31 08:40:00,66.2,66.2,30.45,WNW,295,3.6,3.6,100,0.00,,,0.08,VWS V14.01,2013-07-31 12:40:00,
2013-07-31 08:41:00,66.2,66.2,30.45,WNW,295,3.6,3.6,100,0.00,,,0.08,VWS V14.01,2013-07-31 12:41:00,
2013-07-31 08:42:00,66.2,66.2,30.45,West,279,0.0,0.0,100,0.00,,,0.08,VWS V14.01,2013-07-31 12:42:00,
2013-07-31 08:43:00,66.4,66.4,30.45,West,279,0.0,0.0,100,0.00,,,0.08,VWS V14.01,2013-07-31 12:43:00,
2013-07-31 08:44:00,66.4,66.4,30.45,West,279,0.0,0.0,100,0.00,,,0.08,VWS V14.01,2013-07-31 12:44:00,
2013-07-31 08:45:00,66.4,66.4,30.45,West,279,0.0,0.0,100,0.00,,,0.08,VWS V14.01,2013-07-31 12:45:00,
2013-07-31 08:46:00,66.4,66.4,30.45,West,279,0.0,0.0,100,0.00,,,0.08,VWS V14.01,2013-07-31 12:46:00,
2013-07-31 08:48:00,66.4,66.4,30.45,West,279,0.0,0.0,100,0.00,,,0.08,VWS V14.01,2013-07-31 12:48:00,
2013-07-31 08:49:00,66.4,66.4,30.45,West,279,2.7,2.7,100,0.00,,,0.08,VWS V14.01,2013-07-31 12:49:00,
2013-07-31 08:50:00,66.4,66.4,30.45,West,275,0.0,2.7,100,0.00,,,0.08,VWS V14.01,2013-07-31 12:50:00,
2013-07-31 08:51:00,66.4,66.4,30.45,West,275,0.0,0.0,100,0.00,,,0.08,VWS V14.01,2013-07-31 12:51:00,
2013-07-31 08:53:00,66.4,66.4,30.45,West,275,0.0,0.0,100,0.00,,,0.08,VWS V14.01,2013-07-31 12:53:00,
2013-07-31 08:54:00,66.4,66.4,30.45,West,275,0.0,0.0,100,0.00,,,0.08,VWS V14.01,2013-07-31 12:54:00,
2013-07-31 08:56:00,66.4,66.4,30.45,SW,226,3.1,3.1,100,0.00,,,0.08,VWS V14.01,2013-07-31 12:56:00,
2013-07-31 08:57:00,66.4,66.4,30.47,SW,226,0.0,3.1,100,0.00,,,0.08,VWS V14.01,2013-07-31 12:57:00,
2013-07-31 08:58:00,66.4,66.4,30.47,SW,226,0.0,0.0,100,0.00,,,0.08,VWS V14.01,2013-07-31 12:58:00,
2013-07-31 08:59:00,66.6,66.6,30.47,SW,226,0.0,0.0,100,0.00,,,0.08,VWS V14.01,2013-07-31 12:59:00,
2013-07-31 09:01:00,66.6,66.6,30.47,WNW,302,0.0,0.0,100,0.00,,,0.08,VWS V14.01,2013-07-31 13:01:00,
2013-07-31 09:03:00,66.6,66.6,30.47,WNW,302,0.0,0.0,100,0.00,,,0.08,VWS V14.01,2013-07-31 13:03:00,
2013-07-31 09:04:00,66.6,66.6,30.47,WSW,248,3.1,3.1,100,0.00,,,0.08,VWS V14.01,2013-07-31 13:04:00,
2013-07-31 09:06:00,66.6,66.6,30.47,WSW,248,3.1,3.1,100,0.00,,,0.08,VWS V14.01,2013-07-31 13:06:00,
2013-07-31 09:08:00,66.6,66.6,30.47,WSW,248,3.1,3.1,100,0.00,,,0.08,VWS V14.01,2013-07-31 13:08:00,
2013-07-31 09:09:00,66.6,66.6,30.47,NNW,331,0.0,0.0,100,0.00,,,0.08,VWS V14.01,2013-07-31 13:09:00,
2013-07-31 09:11:00,66.6,66.6,30.47,NNW,331,0.0,0.0,100,0.00,,,0.08,VWS V14.01,2013-07-31 13:11:00,
2013-07-31 09:13:00,66.6,66.6,30.47,WNW,300,5.8,5.8,100,0.00,,,0.08,VWS V14.01,2013-07-31 13:13:00,
2013-07-31 09:14:00,66.6,66.6,30.47,WNW,300,5.8,5.8,100,0.00,,,0.08,VWS V14.01,2013-07-31 13:14:00,
2013-07-31 09:15:00,66.6,66.6,30.47,WNW,300,0.0,0.0,100,0.00,,,0.08,VWS V14.01,2013-07-31 13:15:00,
2013-07-31 09:16:00,66.6,66.6,30.47,WNW,300,0.0,0.0,100,0.00,,,0.08,VWS V14.01,2013-07-31 13:16:00,
2013-07-31 09:18:00,66.6,66.6,30.47,WNW,300,0.0,0.0,100,0.00,,,0.08,VWS V14.01,2013-07-31 13:18:00,
2013-07-31 09:19:00,66.6,66.6,30.47,WNW,300,0.0,0.0,100,0.00,,,0.08,VWS V14.01,2013-07-31 13:19:00,
2013-07-31 09:20:00,66.6,66.6,30.47,WNW,300,0.0,0.0,100,0.00,,,0.08,VWS V14.01,2013-07-31 13:20:00,
2013-07-31 09:22:00,66.6,66.6,30.47,WSW,257,0.0,0.0,100,0.00,,,0.08,VWS V14.01,2013-07-31 13:22:00,
2013-07-31 09:23:00,66.6,66.6,30.47,NW,313,5.8,5.8,100,0.00,,,0.08,VWS V14.01,2013-07-31 13:23:00,
2013-07-31 09:24:00,66.6,66.6,30.47,NW,313,5.8,5.8,100,0.00,,,0.08,VWS V14.01,2013-07-31 13:24:00,
2013-07-31 09:25:00,66.6,66.6,30.47,NW,313,5.8,5.8,100,0.00,,,0.08,VWS V14.01,2013-07-31 13:25:00,
2013-07-31 09:27:00,66.6,66.6,30.47,West,266,0.0,0.0,100,0.00,,,0.08,VWS V14.01,2013-07-31 13:27:00,
2013-07-31 09:28:00,66.6,66.6,30.47,West,266,0.0,0.0,100,0.00,,,0.08,VWS V14.01,2013-07-31 13:28:00,
2013-07-31 09:29:00,66.6,66.6,30.47,West,266,0.0,0.0,100,0.00,,,0.08,VWS V14.01,2013-07-31 13:29:00,
2013-07-31 09:30:00,66.6,66.6,30.47,West,266,0.0,0.0,100,0.00,,,0.08,VWS V14.01,2013-07-31 13:30:00,
2013-07-31 09:32:00,66.6,66.6,30.47,West,266,0.0,0.0,100,0.00,,,0.08,VWS V14.01,2013-07-31 13:32:00,
2013-07-31 09:33:00,66.6,66.6,30.47,West,266,0.0,0.0,100,0.00,,,0.08,VWS V14.01,2013-07-31 13:33:00,
2013-07-31 09:34:00,66.6,66.6,30.47,NW,320,2.7,2.7,100,0.00,,,0.08,VWS V14.01,2013-07-31 13:34:00,
2013-07-31 09:35:00,66.6,66.6,30.47,WNW,295,5.8,5.8,100,0.00,,,0.08,VWS V14.01,2013-07-31 13:35:00,
2013-07-31 09:37:00,66.6,66.6,30.47,NW,306,3.6,3.6,100,0.00,,,0.08,VWS V14.01,2013-07-31 13:37:00,
2013-07-31 09:38:00,66.6,66.6,30.47,SSW,208,0.0,0.0,100,0.00,,,0.08,VWS V14.01,2013-07-31 13:38:00,
2013-07-31 09:40:00,66.6,66.6,30.47,SSW,208,0.0,0.0,100,0.00,,,0.08,VWS V14.01,2013-07-31 13:40:00,
2013-07-31 09:42:00,66.6,66.6,30.50,SSW,208,0.0,0.0,100,0.00,,,0.08,VWS V14.01,2013-07-31 13:42:00,
2013-07-31 09:43:00,66.6,66.6,30.50,SSW,208,0.0,0.0,100,0.00,,,0.08,VWS V14.01,2013-07-31 13:43:00,
2013-07-31 09:45:00,66.6,66.6,30.50,SSW,208,0.0,0.0,100,0.00,,,0.08,VWS V14.01,2013-07-31 13:45:00,
2013-07-31 09:46:00,66.6,66.6,30.50,SSW,208,0.0,0.0,100,0.00,,,0.08,VWS V14.01,2013-07-31 13:46:00,
2013-07-31 09:48:00,66.6,66.6,30.50,SSW,208,0.0,0.0,100,0.00,,,0.08,VWS V14.01,2013-07-31 13:48:00,
2013-07-31 09:49:00,66.6,66.6,30.50,WNW,297,4.0,4.0,100,0.00,,,0.08,VWS V14.01,2013-07-31 13:49:00,
2013-07-31 09:50:00,66.6,66.6,30.50,WNW,297,4.0,4.0,100,0.00,,,0.08,VWS V14.01,2013-07-31 13:50:00,
2013-07-31 09:51:00,66.7,66.7,30.50,WNW,297,4.0,4.0,100,0.00,,,0.08,VWS V14.01,2013-07-31 13:51:00,
2013-07-31 09:53:00,66.7,66.7,30.50,West,271,4.0,4.0,100,0.04,,,0.12,VWS V14.01,2013-07-31 13:53:00,
2013-07-31 09:54:00,66.7,66.7,30.50,West,271,4.0,4.0,100,0.04,,,0.12,VWS V14.01,2013-07-31 13:54:00,
2013-07-31 09:55:00,66.7,66.7,30.45,West,271,4.0,4.0,100,0.04,,,0.12,VWS V14.01,2013-07-31 13:55:00,
2013-07-31 09:56:00,66.7,66.7,30.45,West,267,0.0,4.0,100,0.04,,,0.12,VWS V14.01,2013-07-31 13:56:00,
2013-07-31 09:58:00,66.7,66.7,30.45,West,267,0.0,0.0,100,0.04,,,0.12,VWS V14.01,2013-07-31 13:58:00,
2013-07-31 09:59:00,66.7,66.7,30.45,West,267,0.0,0.0,100,0.04,,,0.12,VWS V14.01,2013-07-31 13:59:00,
2013-07-31 10:00:00,66.7,66.7,30.45,West,267,0.0,0.0,100,0.04,,,0.12,VWS V14.01,2013-07-31 14:00:00,
2013-07-31 10:01:00,66.7,66.7,30.45,West,267,0.0,0.0,100,0.04,,,0.12,VWS V14.01,2013-07-31 14:01:00,
2013-07-31 10:03:00,66.7,66.7,30.45,West,267,0.0,0.0,100,0.04,,,0.12,VWS V14.01,2013-07-31 14:03:00,
2013-07-31 10:04:00,66.7,66.7,30.45,West,267,0.0,0.0,100,0.04,,,0.12,VWS V14.01,2013-07-31 14:04:00,
2013-07-31 10:05:00,66.7,66.7,30.45,West,272,0.0,0.0,100,0.04,,,0.12,VWS V14.01,2013-07-31 14:05:00,
2013-07-31 10:06:00,66.7,66.7,30.45,West,272,0.0,0.0,100,0.04,,,0.12,VWS V14.01,2013-07-31 14:06:00,
2013-07-31 10:07:00,66.7,66.7,30.45,NW,310,4.0,4.0,100,0.04,,,0.12,VWS V14.01,2013-07-31 14:07:00,
2013-07-31 10:08:00,66.9,66.9,30.45,NW,310,4.0,4.0,100,0.04,,,0.12,VWS V14.01,2013-07-31 14:08:00,
2013-07-31 10:09:00,66.9,66.9,30.45,NW,310,0.0,4.0,100,0.04,,,0.12,VWS V14.01,2013-07-31 14:09:00,
2013-07-31 10:10:00,66.9,66.9,30.45,NW,310,0.0,0.0,100,0.04,,,0.12,VWS V14.01,2013-07-31 14:10:00,
2013-07-31 10:11:00,66.9,66.9,30.45,NW,310,0.0,0.0,100,0.04,,,0.12,VWS V14.01,2013-07-31 14:11:00,
2013-07-31 10:12:00,66.9,66.9,30.45,NW,310,0.0,0.0,100,0.04,,,0.12,VWS V14.01,2013-07-31 14:12:00,
2013-07-31 10:13:00,66.9,66.9,30.45,NW,310,0.0,0.0,100,0.04,,,0.12,VWS V14.01,2013-07-31 14:13:00,
2013-07-31 10:14:00,66.9,66.9,30.45,NW,310,0.0,0.0,100,0.04,,,0.12,VWS V14.01,2013-07-31 14:14:00,
2013-07-31 10:15:00,66.9,66.9,30.45,NW,310,0.0,0.0,100,0.04,,,0.12,VWS V14.01,2013-07-31 14:15:00,
2013-07-31 10:16:00,67.3,67.3,30.45,NW,310,0.0,0.0,100,0.04,,,0.12,VWS V14.01,2013-07-31 14:16:00,
2013-07-31 10:17:00,67.3,67.3,30.47,NW,310,0.0,0.0,100,0.04,,,0.12,VWS V14.01,2013-07-31 14:17:00,
2013-07-31 10:18:00,67.3,67.3,30.47,NW,310,0.0,0.0,100,0.04,,,0.12,VWS V14.01,2013-07-31 14:18:00,
2013-07-31 10:19:00,67.3,67.3,30.47,NW,310,0.0,0.0,100,0.04,,,0.12,VWS V14.01,2013-07-31 14:19:00,
2013-07-31 10:20:00,67.3,67.3,30.47,NW,310,0.0,0.0,100,0.04,,,0.12,VWS V14.01,2013-07-31 14:20:00,
2013-07-31 10:22:00,67.5,67.5,30.47,NW,310,0.0,0.0,100,0.04,,,0.12,VWS V14.01,2013-07-31 14:22:00,
2013-07-31 10:23:00,67.5,67.5,30.47,NW,308,3.6,3.6,100,0.04,,,0.12,VWS V14.01,2013-07-31 14:23:00,
2013-07-31 10:25:00,67.5,67.5,30.47,NW,308,3.6,3.6,100,0.04,,,0.12,VWS V14.01,2013-07-31 14:25:00,
2013-07-31 10:27:00,67.5,67.5,30.47,NW,308,3.6,3.6,100,0.04,,,0.12,VWS V14.01,2013-07-31 14:27:00,
2013-07-31 10:28:00,67.5,67.5,30.47,NW,305,0.0,3.6,100,0.04,,,0.12,VWS V14.01,2013-07-31 14:28:00,
2013-07-31 10:30:00,67.5,67.5,30.47,NW,309,2.2,2.2,100,0.04,,,0.12,VWS V14.01,2013-07-31 14:30:00,
2013-07-31 10:32:00,67.5,67.5,30.50,WNW,295,2.2,2.7,100,0.04,,,0.12,VWS V14.01,2013-07-31 14:32:00,
2013-07-31 10:33:00,67.3,67.3,30.50,WNW,295,0.0,0.0,100,0.04,,,0.12,VWS V14.01,2013-07-31 14:33:00,
2013-07-31 10:35:00,67.5,67.5,30.50,WNW,295,0.0,0.0,100,0.04,,,0.12,VWS V14.01,2013-07-31 14:35:00,
2013-07-31 10:37:00,67.5,67.5,30.50,WNW,295,0.0,0.0,100,0.04,,,0.12,VWS V14.01,2013-07-31 14:37:00,
2013-07-31 10:38:00,67.5,67.5,30.50,WNW,295,0.0,0.0,100,0.04,,,0.12,VWS V14.01,2013-07-31 14:38:00,
2013-07-31 10:40:00,67.5,67.5,30.50,WNW,295,0.0,0.0,100,0.04,,,0.12,VWS V14.01,2013-07-31 14:40:00,
2013-07-31 10:42:00,67.5,67.5,30.45,WNW,293,2.2,2.2,100,0.04,,,0.12,VWS V14.01,2013-07-31 14:42:00,
2013-07-31 10:43:00,67.6,67.6,30.45,WNW,293,2.2,2.2,100,0.04,,,0.12,VWS V14.01,2013-07-31 14:43:00,
2013-07-31 10:44:00,67.6,67.6,30.45,WNW,293,2.2,2.2,100,0.04,,,0.12,VWS V14.01,2013-07-31 14:44:00,
2013-07-31 10:45:00,67.6,67.6,30.45,WNW,303,2.7,2.7,100,0.04,,,0.12,VWS V14.01,2013-07-31 14:45:00,
2013-07-31 10:47:00,67.6,67.6,30.45,WNW,284,3.6,3.6,100,0.04,,,0.12,VWS V14.01,2013-07-31 14:47:00,
2013-07-31 10:48:00,67.6,67.6,30.45,WNW,284,3.6,3.6,100,0.04,,,0.12,VWS V14.01,2013-07-31 14:48:00,
2013-07-31 10:49:00,67.6,67.6,30.45,WNW,284,3.6,3.6,100,0.04,,,0.12,VWS V14.01,2013-07-31 14:49:00,
2013-07-31 10:50:00,67.6,67.6,30.45,WNW,290,0.0,0.0,100,0.04,,,0.12,VWS V14.01,2013-07-31 14:50:00,
2013-07-31 10:53:00,67.6,67.6,30.45,WNW,290,0.0,0.0,100,0.00,,,0.12,VWS V14.01,2013-07-31 14:53:00,
2013-07-31 10:54:00,67.6,67.6,30.42,WNW,290,0.0,0.0,100,0.00,,,0.12,VWS V14.01,2013-07-31 14:54:00,
2013-07-31 10:55:00,67.6,67.6,30.42,NW,307,2.7,2.7,100,0.00,,,0.12,VWS V14.01,2013-07-31 14:55:00,
2013-07-31 10:56:00,67.6,67.6,30.42,NW,307,2.7,2.7,100,0.00,,,0.12,VWS V14.01,2013-07-31 14:56:00,
2013-07-31 10:58:00,67.6,67.6,30.42,NW,306,0.0,0.0,100,0.00,,,0.12,VWS V14.01,2013-07-31 14:58:00,
2013-07-31 10:59:00,67.6,67.6,30.42,NW,306,2.2,2.2,100,0.00,,,0.12,VWS V14.01,2013-07-31 14:59:00,
2013-07-31 11:01:00,67.6,67.6,30.42,NW,306,0.0,0.0,100,0.00,,,0.12,VWS V14.01,2013-07-31 15:01:00,
2013-07-31 11:03:00,67.6,67.6,30.42,SW,234,2.2,2.2,100,0.00,,,0.12,VWS V14.01,2013-07-31 15:03:00,
2013-07-31 11:04:00,67.6,67.6,30.42,SW,234,2.2,2.2,100,0.00,,,0.12,VWS V14.01,2013-07-31 15:04:00,
2013-07-31 11:06:00,67.6,67.6,30.42,SW,234,2.2,2.2,100,0.00,,,0.12,VWS V14.01,2013-07-31 15:06:00,
2013-07-31 11:08:00,67.6,67.6,30.42,WSW,245,0.0,0.0,100,0.00,,,0.12,VWS V14.01,2013-07-31 15:08:00,
2013-07-31 11:09:00,67.6,67.6,30.50,WSW,245,0.0,0.0,100,0.00,,,0.12,VWS V14.01,2013-07-31 15:09:00,
2013-07-31 11:11:00,67.6,67.6,30.50,WSW,245,0.0,0.0,100,0.00,,,0.12,VWS V14.01,2013-07-31 15:11:00,
2013-07-31 11:13:00,67.6,67.6,30.50,NNW,330,0.0,2.7,100,0.00,,,0.12,VWS V14.01,2013-07-31 15:13:00,
2013-07-31 11:14:00,67.6,67.6,30.50,NNW,330,0.0,0.0,100,0.00,,,0.12,VWS V14.01,2013-07-31 15:14:00,
2013-07-31 11:16:00,67.6,67.6,30.50,NW,325,5.8,5.8,100,0.00,,,0.12,VWS V14.01,2013-07-31 15:16:00,
2013-07-31 11:18:00,68.0,68.0,30.50,NW,325,5.8,5.8,100,0.00,,,0.12,VWS V14.01,2013-07-31 15:18:00,
2013-07-31 11:19:00,68.0,68.0,30.50,NW,325,5.8,5.8,100,0.00,,,0.12,VWS V14.01,2013-07-31 15:19:00,
2013-07-31 11:21:00,68.0,68.0,30.50,WNW,301,0.0,5.8,100,0.00,,,0.12,VWS V14.01,2013-07-31 15:21:00,
2013-07-31 11:24:00,68.0,68.0,30.50,WNW,301,3.1,3.1,100,0.00,,,0.12,VWS V14.01,2013-07-31 15:24:00,
2013-07-31 11:25:00,68.0,68.0,30.50,WNW,301,3.1,3.1,100,0.00,,,0.12,VWS V14.01,2013-07-31 15:25:00,
2013-07-31 11:26:00,68.2,68.2,30.50,NNW,343,4.0,4.0,100,0.00,,,0.12,VWS V14.01,2013-07-31 15:26:00,
2013-07-31 11:27:00,68.2,68.2,30.50,NNW,343,4.0,4.0,100,0.00,,,0.12,VWS V14.01,2013-07-31 15:27:00,
2013-07-31 11:29:00,68.2,68.2,30.42,NNW,343,4.0,4.0,100,0.00,,,0.12,VWS V14.01,2013-07-31 15:29:00,
2013-07-31 11:30:00,68.2,68.2,30.42,NNW,343,4.0,4.0,100,0.00,,,0.12,VWS V14.01,2013-07-31 15:30:00,
2013-07-31 11:31:00,68.2,68.2,30.42,NNW,343,4.0,4.0,100,0.00,,,0.12,VWS V14.01,2013-07-31 15:31:00,
2013-07-31 11:32:00,68.2,68.2,30.42,NNW,343,4.0,4.0,100,0.00,,,0.12,VWS V14.01,2013-07-31 15:32:00,
2013-07-31 11:34:00,68.4,68.4,30.42,WNW,282,3.6,4.9,100,0.00,,,0.12,VWS V14.01,2013-07-31 15:34:00,
2013-07-31 11:35:00,68.4,68.4,30.42,WNW,282,3.1,3.1,100,0.00,,,0.12,VWS V14.01,2013-07-31 15:35:00,
2013-07-31 11:36:00,68.4,68.4,30.42,WNW,282,3.1,3.1,100,0.00,,,0.12,VWS V14.01,2013-07-31 15:36:00,
2013-07-31 11:37:00,68.2,68.2,30.42,WNW,282,0.0,0.0,100,0.00,,,0.12,VWS V14.01,2013-07-31 15:37:00,
2013-07-31 11:39:00,68.2,68.2,30.42,West,281,0.0,0.0,100,0.00,,,0.12,VWS V14.01,2013-07-31 15:39:00,
2013-07-31 11:40:00,68.2,68.2,30.42,West,281,0.0,0.0,100,0.00,,,0.12,VWS V14.01,2013-07-31 15:40:00,
2013-07-31 11:41:00,68.2,68.2,30.47,West,281,0.0,0.0,100,0.00,,,0.12,VWS V14.01,2013-07-31 15:41:00,
2013-07-31 11:43:00,68.2,68.2,30.47,West,281,0.0,0.0,100,0.00,,,0.12,VWS V14.01,2013-07-31 15:43:00,
2013-07-31 11:44:00,68.2,68.2,30.47,West,281,0.0,0.0,100,0.00,,,0.12,VWS V14.01,2013-07-31 15:44:00,
2013-07-31 11:45:00,68.2,68.2,30.47,West,272,3.1,3.1,100,0.00,,,0.12,VWS V14.01,2013-07-31 15:45:00,
2013-07-31 11:46:00,68.2,68.2,30.47,West,272,3.1,3.1,100,0.00,,,0.12,VWS V14.01,2013-07-31 15:46:00,
2013-07-31 11:48:00,68.4,68.4,30.47,WNW,298,4.9,4.9,100,0.00,,,0.12,VWS V14.01,2013-07-31 15:48:00,
2013-07-31 11:50:00,68.4,68.4,30.47,NW,316,4.0,4.9,100,0.00,,,0.12,VWS V14.01,2013-07-31 15:50:00,
2013-07-31 11:51:00,68.4,68.4,30.47,NW,316,4.0,4.0,100,0.00,,,0.12,VWS V14.01,2013-07-31 15:51:00,
2013-07-31 11:53:00,68.4,68.4,30.47,NW,316,0.0,0.0,100,0.00,,,0.12,VWS V14.01,2013-07-31 15:53:00,
2013-07-31 11:55:00,68.4,68.4,30.45,NW,316,0.0,0.0,100,0.00,,,0.12,VWS V14.01,2013-07-31 15:55:00,
2013-07-31 11:56:00,68.4,68.4,30.45,NW,316,0.0,0.0,100,0.00,,,0.12,VWS V14.01,2013-07-31 15:56:00,
2013-07-31 11:58:00,68.4,68.4,30.45,NW,316,0.0,0.0,100,0.00,,,0.12,VWS V14.01,2013-07-31 15:58:00,
2013-07-31 12:00:00,68.4,68.4,30.45,WNW,295,3.6,3.6,100,0.00,,,0.12,VWS V14.01,2013-07-31 16:00:00,
2013-07-31 12:01:00,68.4,68.4,30.45,NNW,328,3.1,3.6,100,0.00,,,0.12,VWS V14.01,2013-07-31 16:01:00,
2013-07-31 12:03:00,68.4,68.4,30.45,West,279,4.0,4.0,100,0.00,,,0.12,VWS V14.01,2013-07-31 16:03:00,
2013-07-31 12:05:00,68.4,68.4,30.45,West,271,3.6,4.0,100,0.00,,,0.12,VWS V14.01,2013-07-31 16:05:00,
2013-07-31 12:06:00,68.4,68.4,30.45,West,271,3.6,3.6,100,0.00,,,0.12,VWS V14.01,2013-07-31 16:06:00,
2013-07-31 12:07:00,68.4,68.4,30.45,West,271,3.6,3.6,100,0.00,,,0.12,VWS V14.01,2013-07-31 16:07:00,
2013-07-31 12:08:00,68.4,68.4,30.45,West,271,0.0,0.0,100,0.00,,,0.12,VWS V14.01,2013-07-31 16:08:00,
2013-07-31 12:11:00,68.4,68.4,30.47,West,271,0.0,0.0,100,0.00,,,0.12,VWS V14.01,2013-07-31 16:11:00,
2013-07-31 12:12:00,68.4,68.4,30.47,West,271,0.0,0.0,100,0.00,,,0.12,VWS V14.01,2013-07-31 16:12:00,
2013-07-31 12:13:00,68.4,68.4,30.47,West,271,0.0,0.0,100,0.00,,,0.12,VWS V14.01,2013-07-31 16:13:00,
2013-07-31 12:16:00,68.4,68.4,30.47,NW,308,2.2,2.7,100,0.00,,,0.12,VWS V14.01,2013-07-31 16:16:00,
2013-07-31 12:17:00,68.4,68.4,30.47,NW,308,2.2,2.2,100,0.00,,,0.12,VWS V14.01,2013-07-31 16:17:00,
2013-07-31 12:19:00,68.4,68.4,30.47,NW,307,0.0,0.0,100,0.00,,,0.12,VWS V14.01,2013-07-31 16:19:00,
2013-07-31 12:21:00,68.4,68.4,30.47,West,265,3.1,3.1,100,0.00,,,0.12,VWS V14.01,2013-07-31 16:21:00,
2013-07-31 12:22:00,68.4,68.4,30.47,West,265,3.1,3.1,100,0.00,,,0.12,VWS V14.01,2013-07-31 16:22:00,
2013-07-31 12:24:00,68.4,68.4,30.47,West,265,3.1,3.1,100,0.00,,,0.12,VWS V14.01,2013-07-31 16:24:00,
2013-07-31 12:26:00,68.5,68.5,30.47,WNW,291,0.0,0.0,100,0.00,,,0.12,VWS V14.01,2013-07-31 16:26:00,
2013-07-31 12:27:00,68.5,68.5,30.47,WNW,291,0.0,0.0,100,0.00,,,0.12,VWS V14.01,2013-07-31 16:27:00,
2013-07-31 12:29:00,68.5,68.5,30.47,NW,317,2.7,2.7,100,0.00,,,0.12,VWS V14.01,2013-07-31 16:29:00,
2013-07-31 12:31:00,68.5,68.5,30.42,WNW,292,3.1,3.1,100,0.00,,,0.12,VWS V14.01,2013-07-31 16:31:00,
2013-07-31 12:32:00,68.5,68.5,30.42,WNW,292,0.0,3.1,100,0.00,,,0.12,VWS V14.01,2013-07-31 16:32:00,
2013-07-31 12:34:00,68.5,68.5,30.42,WNW,292,0.0,0.0,100,0.00,,,0.12,VWS V14.01,2013-07-31 16:34:00,
2013-07-31 12:37:00,68.5,68.5,30.42,WNW,292,0.0,0.0,100,0.00,,,0.12,VWS V14.01,2013-07-31 16:37:00,
2013-07-31 12:39:00,68.7,68.7,30.45,West,278,0.0,0.0,100,0.00,,,0.12,VWS V14.01,2013-07-31 16:39:00,
2013-07-31 12:42:00,68.7,68.7,30.45,West,278,3.1,3.1,100,0.00,,,0.12,VWS V14.01,2013-07-31 16:42:00,
2013-07-31 12:43:00,68.7,68.7,30.45,West,278,3.1,3.1,100,0.00,,,0.12,VWS V14.01,2013-07-31 16:43:00,
2013-07-31 12:45:00,68.9,68.9,30.45,West,278,3.1,3.1,100,0.00,,,0.12,VWS V14.01,2013-07-31 16:45:00,
2013-07-31 12:47:00,68.9,68.9,30.45,West,278,0.0,0.0,100,0.00,,,0.12,VWS V14.01,2013-07-31 16:47:00,
2013-07-31 12:48:00,68.9,68.9,30.45,West,278,0.0,0.0,100,0.00,,,0.12,VWS V14.01,2013-07-31 16:48:00,
2013-07-31 12:50:00,68.9,68.9,30.45,West,278,0.0,0.0,100,0.00,,,0.12,VWS V14.01,2013-07-31 16:50:00,
2013-07-31 12:52:00,69.3,69.3,30.45,West,278,0.0,0.0,100,0.00,,,0.12,VWS V14.01,2013-07-31 16:52:00,
2013-07-31 12:53:00,69.3,69.3,30.45,West,278,0.0,0.0,100,0.00,,,0.12,VWS V14.01,2013-07-31 16:53:00,
2013-07-31 12:55:00,69.4,69.4,30.45,West,260,0.0,2.2,100,0.00,,,0.12,VWS V14.01,2013-07-31 16:55:00,
2013-07-31 12:57:00,69.4,69.4,30.42,West,261,0.0,0.0,100,0.00,,,0.12,VWS V14.01,2013-07-31 16:57:00,
2013-07-31 12:58:00,69.4,69.4,30.42,West,261,0.0,0.0,100,0.00,,,0.12,VWS V14.01,2013-07-31 16:58:00,
2013-07-31 13:00:00,69.4,69.4,30.42,West,261,0.0,0.0,100,0.00,,,0.12,VWS V14.01,2013-07-31 17:00:00,
2013-07-31 13:02:00,69.4,69.4,30.42,West,261,0.0,0.0,100,0.00,,,0.12,VWS V14.01,2013-07-31 17:02:00,
2013-07-31 13:03:00,69.4,69.4,30.42,West,261,0.0,0.0,100,0.00,,,0.12,VWS V14.01,2013-07-31 17:03:00,
2013-07-31 13:05:00,69.4,69.4,30.42,West,261,0.0,0.0,100,0.00,,,0.12,VWS V14.01,2013-07-31 17:05:00,
2013-07-31 13:08:00,69.3,69.3,30.42,WNW,295,2.7,2.7,100,0.00,,,0.12,VWS V14.01,2013-07-31 17:08:00,
2013-07-31 13:10:00,69.3,69.3,30.45,WNW,295,2.7,2.7,100,0.00,,,0.12,VWS V14.01,2013-07-31 17:10:00,
2013-07-31 13:13:00,69.3,69.3,30.45,West,266,4.0,4.0,100,0.00,,,0.12,VWS V14.01,2013-07-31 17:13:00,
2013-07-31 13:14:00,69.3,69.3,30.45,West,266,3.1,3.1,100,0.00,,,0.12,VWS V14.01,2013-07-31 17:14:00,
2013-07-31 13:15:00,69.3,69.3,30.45,West,266,3.1,3.1,100,0.00,,,0.12,VWS V14.01,2013-07-31 17:15:00,
2013-07-31 13:18:00,69.3,69.3,30.45,WNW,303,2.2,2.2,100,0.00,,,0.12,VWS V14.01,2013-07-31 17:18:00,
2013-07-31 13:19:00,69.3,69.3,30.45,WNW,303,2.2,2.2,100,0.00,,,0.12,VWS V14.01,2013-07-31 17:19:00,
2013-07-31 13:21:00,69.3,69.3,30.45,WNW,301,0.0,2.2,100,0.00,,,0.12,VWS V14.01,2013-07-31 17:21:00,
2013-07-31 13:23:00,69.3,69.3,30.45,NW,305,0.0,0.0,100,0.00,,,0.12,VWS V14.01,2013-07-31 17:23:00,
2013-07-31 13:24:00,69.3,69.3,30.45,NW,305,0.0,0.0,100,0.00,,,0.12,VWS V14.01,2013-07-31 17:24:00,
2013-07-31 13:26:00,69.3,69.3,30.45,NW,305,0.0,0.0,100,0.00,,,0.12,VWS V14.01,2013-07-31 17:26:00,
2013-07-31 13:28:00,69.3,69.3,30.42,NW,320,0.0,0.0,100,0.00,,,0.12,VWS V14.01,2013-07-31 17:28:00,
2013-07-31 13:29:00,69.3,69.3,30.42,NW,320,0.0,0.0,100,0.00,,,0.12,VWS V14.01,2013-07-31 17:29:00,
2013-07-31 13:31:00,69.4,69.4,30.42,WSW,256,3.6,3.6,100,0.00,,,0.12,VWS V14.01,2013-07-31 17:31:00,
2013-07-31 13:33:00,69.4,69.4,30.42,WSW,256,0.0,0.0,100,0.00,,,0.12,VWS V14.01,2013-07-31 17:33:00,
2013-07-31 13:34:00,69.4,69.4,30.42,WSW,256,0.0,0.0,100,0.00,,,0.12,VWS V14.01,2013-07-31 17:34:00,
2013-07-31 13:35:00,69.4,69.4,30.42,WSW,256,0.0,0.0,100,0.00,,,0.12,VWS V14.01,2013-07-31 17:35:00,
2013-07-31 13:38:00,69.6,69.6,30.42,WSW,256,0.0,0.0,100,0.00,,,0.12,VWS V14.01,2013-07-31 17:38:00,
2013-07-31 13:39:00,69.6,69.6,30.45,North,4,3.1,3.1,100,0.00,,,0.12,VWS V14.01,2013-07-31 17:39:00,
2013-07-31 13:40:00,69.6,69.6,30.45,North,4,3.1,3.1,100,0.00,,,0.12,VWS V14.01,2013-07-31 17:40:00,
2013-07-31 13:43:00,69.6,69.6,30.45,NE,37,0.0,0.0,100,0.00,,,0.12,VWS V14.01,2013-07-31 17:43:00,
2013-07-31 13:44:00,69.6,69.6,30.45,NE,37,0.0,0.0,100,0.00,,,0.12,VWS V14.01,2013-07-31 17:44:00,
2013-07-31 13:45:00,70.0,70.0,30.45,NE,37,0.0,0.0,100,0.00,,,0.12,VWS V14.01,2013-07-31 17:45:00,
2013-07-31 13:48:00,70.0,70.0,30.45,NNE,21,2.2,2.2,100,0.00,,,0.12,VWS V14.01,2013-07-31 17:48:00,
2013-07-31 13:49:00,70.0,70.0,30.45,NNE,21,0.0,2.2,100,0.00,,,0.12,VWS V14.01,2013-07-31 17:49:00,
2013-07-31 13:50:00,70.0,70.0,30.45,NNE,21,0.0,2.2,100,0.00,,,0.12,VWS V14.01,2013-07-31 17:50:00,
2013-07-31 13:53:00,70.0,70.0,30.45,NNE,21,0.0,0.0,100,0.00,,,0.12,VWS V14.01,2013-07-31 17:53:00,
2013-07-31 13:54:00,70.0,70.0,30.45,NNE,21,0.0,0.0,100,0.00,,,0.12,VWS V14.01,2013-07-31 17:54:00,
2013-07-31 13:55:00,70.0,70.0,30.47,NNE,21,0.0,0.0,100,0.00,,,0.12,VWS V14.01,2013-07-31 17:55:00,
2013-07-31 13:58:00,70.3,70.3,30.47,NNE,21,0.0,0.0,100,0.00,,,0.12,VWS V14.01,2013-07-31 17:58:00,
2013-07-31 13:59:00,70.3,70.3,30.47,NNE,21,0.0,0.0,100,0.00,,,0.12,VWS V14.01,2013-07-31 17:59:00,
2013-07-31 14:00:00,70.3,70.3,30.47,NNE,21,0.0,0.0,100,0.00,,,0.12,VWS V14.01,2013-07-31 18:00:00,
2013-07-31 14:03:00,70.3,70.3,30.47,NNE,21,0.0,0.0,100,0.00,,,0.12,VWS V14.01,2013-07-31 18:03:00,
2013-07-31 14:04:00,70.3,70.3,30.47,NNE,21,0.0,0.0,100,0.00,,,0.12,VWS V14.01,2013-07-31 18:04:00,
2013-07-31 14:05:00,70.3,70.3,30.47,NNE,21,0.0,0.0,100,0.00,,,0.12,VWS V14.01,2013-07-31 18:05:00,
2013-07-31 14:08:00,70.3,70.3,30.47,West,259,2.7,2.7,100,0.00,,,0.12,VWS V14.01,2013-07-31 18:08:00,
2013-07-31 14:09:00,70.3,70.3,30.45,West,259,2.7,2.7,100,0.00,,,0.12,VWS V14.01,2013-07-31 18:09:00,
2013-07-31 14:10:00,70.5,70.5,30.45,West,259,2.7,2.7,100,0.00,,,0.12,VWS V14.01,2013-07-31 18:10:00,
2013-07-31 14:13:00,70.5,70.5,30.45,North,7,0.0,0.0,100,0.00,,,0.12,VWS V14.01,2013-07-31 18:13:00,
2013-07-31 14:14:00,70.5,70.5,30.45,North,7,0.0,0.0,100,0.00,,,0.12,VWS V14.01,2013-07-31 18:14:00,
2013-07-31 14:15:00,70.5,70.5,30.45,North,7,0.0,0.0,100,0.00,,,0.12,VWS V14.01,2013-07-31 18:15:00,
2013-07-31 14:16:00,70.5,70.5,30.45,North,7,0.0,0.0,100,0.00,,,0.12,VWS V14.01,2013-07-31 18:16:00,
2013-07-31 14:18:00,70.5,70.5,30.45,North,8,0.0,0.0,100,0.00,,,0.12,VWS V14.01,2013-07-31 18:18:00,
2013-07-31 14:20:00,70.5,70.5,30.45,North,8,0.0,0.0,100,0.00,,,0.12,VWS V14.01,2013-07-31 18:20:00,
2013-07-31 14:21:00,70.5,70.5,30.45,North,8,0.0,0.0,100,0.00,,,0.12,VWS V14.01,2013-07-31 18:21:00,
2013-07-31 14:24:00,70.5,70.5,30.45,NNW,337,0.0,0.0,100,0.00,,,0.12,VWS V14.01,2013-07-31 18:24:00,
2013-07-31 14:25:00,70.5,70.5,30.45,NNW,337,0.0,0.0,100,0.00,,,0.12,VWS V14.01,2013-07-31 18:25:00,
2013-07-31 14:26:00,70.5,70.5,30.45,NNW,337,0.0,0.0,100,0.00,,,0.12,VWS V14.01,2013-07-31 18:26:00,
2013-07-31 14:29:00,70.5,70.5,30.45,NNW,337,0.0,0.0,100,0.00,,,0.12,VWS V14.01,2013-07-31 18:29:00,
2013-07-31 14:30:00,70.5,70.5,30.39,NNW,327,0.0,0.0,100,0.00,,,0.12,VWS V14.01,2013-07-31 18:30:00,
2013-07-31 14:31:00,70.5,70.5,30.39,NNW,327,0.0,0.0,100,0.00,,,0.12,VWS V14.01,2013-07-31 18:31:00,
2013-07-31 14:34:00,70.5,70.5,30.39,North,0,0.0,3.1,100,0.00,,,0.12,VWS V14.01,2013-07-31 18:34:00,
2013-07-31 14:35:00,70.5,70.5,30.39,North,0,0.0,0.0,100,0.00,,,0.12,VWS V14.01,2013-07-31 18:35:00,
2013-07-31 14:36:00,70.7,70.7,30.39,North,0,0.0,0.0,100,0.00,,,0.12,VWS V14.01,2013-07-31 18:36:00,
2013-07-31 14:39:00,70.7,70.7,30.39,North,3,0.0,0.0,100,0.00,,,0.12,VWS V14.01,2013-07-31 18:39:00,
2013-07-31 14:40:00,70.7,70.7,30.42,North,3,0.0,0.0,100,0.00,,,0.12,VWS V14.01,2013-07-31 18:40:00,
2013-07-31 14:41:00,70.7,70.7,30.42,North,5,0.0,0.0,100,0.00,,,0.12,VWS V14.01,2013-07-31 18:41:00,
2013-07-31 14:44:00,70.9,70.9,30.42,North,5,0.0,0.0,100,0.00,,,0.12,VWS V14.01,2013-07-31 18:44:00,
2013-07-31 14:45:00,70.9,70.9,30.42,North,5,2.7,2.7,100,0.00,,,0.12,VWS V14.01,2013-07-31 18:45:00,
2013-07-31 14:46:00,70.9,70.9,30.42,North,5,2.7,2.7,100,0.00,,,0.12,VWS V14.01,2013-07-31 18:46:00,
2013-07-31 14:47:00,70.9,70.9,30.42,North,5,2.7,2.7,100,0.00,,,0.12,VWS V14.01,2013-07-31 18:47:00,
2013-07-31 14:49:00,70.9,70.9,30.42,North,357,4.0,4.0,100,0.00,,,0.12,VWS V14.01,2013-07-31 18:49:00,
2013-07-31 14:50:00,70.9,70.9,30.42,North,357,4.0,4.0,100,0.00,,,0.12,VWS V14.01,2013-07-31 18:50:00,
2013-07-31 14:51:00,70.9,70.9,30.42,North,2,0.0,4.0,100,0.00,,,0.12,VWS V14.01,2013-07-31 18:51:00,
2013-07-31 14:52:00,70.9,70.9,30.42,North,2,0.0,0.0,100,0.00,,,0.12,VWS V14.01,2013-07-31 18:52:00,
2013-07-31 14:54:00,70.9,70.9,30.42,North,2,2.2,2.2,100,0.00,,,0.12,VWS V14.01,2013-07-31 18:54:00,
2013-07-31 14:55:00,70.9,70.9,30.42,North,2,2.2,2.2,100,0.00,,,0.12,VWS V14.01,2013-07-31 18:55:00,
2013-07-31 14:57:00,70.9,70.9,30.42,North,2,2.2,2.2,100,0.00,,,0.12,VWS V14.01,2013-07-31 18:57:00,
2013-07-31 14:59:00,70.9,70.9,30.42,NNW,339,0.0,0.0,100,0.00,,,0.12,VWS V14.01,2013-07-31 18:59:00,
2013-07-31 15:00:00,70.9,70.9,30.42,NNW,339,0.0,0.0,100,0.00,,,0.12,VWS V14.01,2013-07-31 19:00:00,
2013-07-31 15:01:00,70.9,70.9,30.42,NNW,339,0.0,0.0,100,0.00,,,0.12,VWS V14.01,2013-07-31 19:01:00,
2013-07-31 15:02:00,71.1,71.1,30.42,NNW,339,0.0,0.0,100,0.00,,,0.12,VWS V14.01,2013-07-31 19:02:00,
2013-07-31 15:04:00,71.1,71.1,30.42,NNW,339,3.6,3.6,100,0.00,,,0.12,VWS V14.01,2013-07-31 19:04:00,
2013-07-31 15:05:00,71.1,71.1,30.42,NNW,339,3.6,3.6,100,0.00,,,0.12,VWS V14.01,2013-07-31 19:05:00,
2013-07-31 15:06:00,71.1,71.1,30.42,NNW,339,0.0,0.0,100,0.00,,,0.12,VWS V14.01,2013-07-31 19:06:00,
2013-07-31 15:07:00,71.1,71.1,30.42,NNW,339,0.0,0.0,100,0.00,,,0.12,VWS V14.01,2013-07-31 19:07:00,
2013-07-31 15:08:00,71.1,71.1,30.42,NNW,339,0.0,0.0,100,0.00,,,0.12,VWS V14.01,2013-07-31 19:08:00,
2013-07-31 15:09:00,71.1,71.1,30.42,NNW,339,0.0,0.0,100,0.00,,,0.12,VWS V14.01,2013-07-31 19:09:00,
2013-07-31 15:10:00,71.1,71.1,30.42,NNW,339,0.0,0.0,100,0.00,,,0.12,VWS V14.01,2013-07-31 19:10:00,
2013-07-31 15:11:00,71.2,71.2,30.42,NNW,339,0.0,0.0,100,0.00,,,0.12,VWS V14.01,2013-07-31 19:11:00,
2013-07-31 15:12:00,71.2,71.2,30.42,NNW,339,0.0,0.0,100,0.00,,,0.12,VWS V14.01,2013-07-31 19:12:00,
2013-07-31 15:13:00,71.2,71.2,30.42,NNW,339,0.0,0.0,100,0.00,,,0.12,VWS V14.01,2013-07-31 19:13:00,
2013-07-31 15:14:00,71.2,71.2,30.42,NNW,339,0.0,0.0,100,0.00,,,0.12,VWS V14.01,2013-07-31 19:14:00,
2013-07-31 15:15:00,71.2,71.2,30.42,North,357,2.2,2.2,100,0.00,,,0.12,VWS V14.01,2013-07-31 19:15:00,
2013-07-31 15:16:00,71.2,71.2,30.42,North,357,2.2,2.2,100,0.00,,,0.12,VWS V14.01,2013-07-31 19:16:00,
2013-07-31 15:18:00,71.2,71.2,30.42,North,357,0.0,0.0,100,0.00,,,0.12,VWS V14.01,2013-07-31 19:18:00,
2013-07-31 15:19:00,71.4,71.4,30.42,North,357,0.0,0.0,100,0.00,,,0.12,VWS V14.01,2013-07-31 19:19:00,
2013-07-31 15:21:00,71.4,71.4,30.42,North,353,0.0,0.0,100,0.00,,,0.12,VWS V14.01,2013-07-31 19:21:00,
2013-07-31 15:23:00,71.4,71.4,30.42,North,353,0.0,0.0,100,0.00,,,0.12,VWS V14.01,2013-07-31 19:23:00,
2013-07-31 15:24:00,71.4,71.4,30.42,North,353,0.0,0.0,100,0.00,,,0.12,VWS V14.01,2013-07-31 19:24:00,
2013-07-31 15:26:00,71.4,71.4,30.42,North,353,0.0,0.0,100,0.00,,,0.12,VWS V14.01,2013-07-31 19:26:00,
2013-07-31 15:28:00,71.4,71.4,30.42,North,353,0.0,0.0,100,0.00,,,0.12,VWS V14.01,2013-07-31 19:28:00,
2013-07-31 15:30:00,71.4,71.4,30.42,North,353,0.0,0.0,100,0.00,,,0.12,VWS V14.01,2013-07-31 19:30:00,
2013-07-31 15:31:00,71.4,71.4,30.42,North,353,0.0,0.0,100,0.00,,,0.12,VWS V14.01,2013-07-31 19:31:00,
2013-07-31 15:32:00,71.4,71.4,30.42,North,353,0.0,0.0,100,0.00,,,0.12,VWS V14.01,2013-07-31 19:32:00,
2013-07-31 15:33:00,71.4,71.4,30.42,North,353,0.0,0.0,100,0.00,,,0.12,VWS V14.01,2013-07-31 19:33:00,
2013-07-31 15:35:00,71.4,71.4,30.42,NNE,18,4.0,4.0,100,0.00,,,0.12,VWS V14.01,2013-07-31 19:35:00,
2013-07-31 15:36:00,71.4,71.4,30.42,NNE,18,2.7,4.0,100,0.00,,,0.12,VWS V14.01,2013-07-31 19:36:00,
2013-07-31 15:37:00,71.4,71.4,30.42,NNE,18,2.7,2.7,100,0.00,,,0.12,VWS V14.01,2013-07-31 19:37:00,
2013-07-31 15:38:00,71.4,71.4,30.42,NNE,18,2.7,2.7,100,0.00,,,0.12,VWS V14.01,2013-07-31 19:38:00,
2013-07-31 15:40:00,71.4,71.4,30.42,North,1,2.2,2.2,100,0.00,,,0.12,VWS V14.01,2013-07-31 19:40:00,
2013-07-31 15:41:00,71.4,71.4,30.42,North,1,0.0,2.2,100,0.00,,,0.12,VWS V14.01,2013-07-31 19:41:00,
2013-07-31 15:42:00,71.4,71.4,30.42,North,1,0.0,0.0,100,0.00,,,0.12,VWS V14.01,2013-07-31 19:42:00,
2013-07-31 15:43:00,71.4,71.4,30.42,North,1,0.0,0.0,100,0.00,,,0.12,VWS V14.01,2013-07-31 19:43:00,
2013-07-31 15:45:00,71.1,71.1,30.42,North,1,0.0,0.0,100,0.00,,,0.12,VWS V14.01,2013-07-31 19:45:00,
2013-07-31 15:47:00,71.1,71.1,30.42,North,11,0.0,0.0,100,0.00,,,0.12,VWS V14.01,2013-07-31 19:47:00,
2013-07-31 15:48:00,71.1,71.1,30.42,North,11,0.0,0.0,100,0.00,,,0.12,VWS V14.01,2013-07-31 19:48:00,
2013-07-31 15:49:00,71.1,71.1,30.42,North,11,0.0,0.0,100,0.00,,,0.12,VWS V14.01,2013-07-31 19:49:00,
2013-07-31 15:50:00,71.1,71.1,30.42,North,11,0.0,0.0,100,0.00,,,0.12,VWS V14.01,2013-07-31 19:50:00,
2013-07-31 15:52:00,71.1,71.1,30.42,NNE,16,4.0,4.0,100,0.00,,,0.12,VWS V14.01,2013-07-31 19:52:00,
2013-07-31 15:53:00,70.7,70.7,30.42,NNE,16,4.0,4.0,100,0.00,,,0.12,VWS V14.01,2013-07-31 19:53:00,
2013-07-31 15:54:00,70.7,70.7,30.45,NNE,16,4.0,4.0,100,0.00,,,0.12,VWS V14.01,2013-07-31 19:54:00,
2013-07-31 15:55:00,70.7,70.7,30.45,NNE,16,4.0,4.0,100,0.00,,,0.12,VWS V14.01,2013-07-31 19:55:00,
2013-07-31 15:57:00,70.7,70.7,30.45,North,6,0.0,0.0,100,0.00,,,0.12,VWS V14.01,2013-07-31 19:57:00,
2013-07-31 15:58:00,70.7,70.7,30.45,North,6,0.0,0.0,100,0.00,,,0.12,VWS V14.01,2013-07-31 19:58:00,
2013-07-31 15:59:00,70.7,70.7,30.45,North,6,0.0,0.0,100,0.00,,,0.12,VWS V14.01,2013-07-31 19:59:00,
2013-07-31 16:00:00,70.7,70.7,30.45,North,6,0.0,0.0,100,0.00,,,0.12,VWS V14.01,2013-07-31 20:00:00,
2013-07-31 16:03:00,70.7,70.7,30.45,North,6,0.0,0.0,100,0.00,,,0.12,VWS V14.01,2013-07-31 20:03:00,
2013-07-31 16:04:00,70.7,70.7,30.45,North,6,0.0,0.0,100,0.00,,,0.12,VWS V14.01,2013-07-31 20:04:00,
2013-07-31 16:05:00,70.7,70.7,30.45,NNW,345,0.0,0.0,100,0.00,,,0.12,VWS V14.01,2013-07-31 20:05:00,
2013-07-31 16:08:00,70.7,70.7,30.45,NNW,346,0.0,0.0,100,0.00,,,0.12,VWS V14.01,2013-07-31 20:08:00,
2013-07-31 16:09:00,70.7,70.7,30.45,NNE,12,0.0,0.0,100,0.00,,,0.12,VWS V14.01,2013-07-31 20:09:00,
2013-07-31 16:11:00,70.3,70.3,30.45,NNE,12,0.0,0.0,100,0.00,,,0.12,VWS V14.01,2013-07-31 20:11:00,
2013-07-31 16:13:00,70.3,70.3,30.45,NNE,12,0.0,0.0,100,0.00,,,0.12,VWS V14.01,2013-07-31 20:13:00,
2013-07-31 16:15:00,70.3,70.3,30.45,NNE,12,0.0,0.0,100,0.00,,,0.12,VWS V14.01,2013-07-31 20:15:00,
2013-07-31 16:16:00,70.3,70.3,30.45,NNE,12,0.0,0.0,100,0.00,,,0.12,VWS V14.01,2013-07-31 20:16:00,
2013-07-31 16:18:00,70.3,70.3,30.45,NNE,21,0.0,0.0,100,0.00,,,0.12,VWS V14.01,2013-07-31 20:18:00,
2013-07-31 16:19:00,70.3,70.3,30.45,NNE,21,0.0,0.0,100,0.00,,,0.12,VWS V14.01,2013-07-31 20:19:00,
2013-07-31 16:20:00,70.3,70.3,30.45,NNE,21,0.0,0.0,100,0.00,,,0.12,VWS V14.01,2013-07-31 20:20:00,
2013-07-31 16:21:00,70.3,70.3,30.45,NNE,21,0.0,0.0,100,0.00,,,0.12,VWS V14.01,2013-07-31 20:21:00,
2013-07-31 16:23:00,70.3,70.3,30.45,NNE,21,0.0,0.0,100,0.00,,,0.12,VWS V14.01,2013-07-31 20:23:00,
2013-07-31 16:24:00,70.3,70.3,30.45,NNE,21,0.0,0.0,100,0.00,,,0.12,VWS V14.01,2013-07-31 20:24:00,
2013-07-31 16:25:00,70.3,70.3,30.45,NNE,21,0.0,0.0,100,0.00,,,0.12,VWS V14.01,2013-07-31 20:25:00,
2013-07-31 16:27:00,70.3,70.3,30.45,NNE,21,0.0,0.0,100,0.00,,,0.12,VWS V14.01,2013-07-31 20:27:00,
2013-07-31 16:28:00,70.3,70.3,30.45,NNE,21,0.0,0.0,100,0.00,,,0.12,VWS V14.01,2013-07-31 20:28:00,
2013-07-31 16:29:00,70.3,70.3,30.45,NNE,21,0.0,0.0,100,0.00,,,0.12,VWS V14.01,2013-07-31 20:29:00,
2013-07-31 16:31:00,70.3,70.3,30.45,NNE,22,2.7,2.7,100,0.00,,,0.12,VWS V14.01,2013-07-31 20:31:00,
2013-07-31 16:32:00,70.3,70.3,30.45,NNE,18,0.0,0.0,100,0.00,,,0.12,VWS V14.01,2013-07-31 20:32:00,
2013-07-31 16:33:00,70.3,70.3,30.45,NNE,18,0.0,0.0,100,0.00,,,0.12,VWS V14.01,2013-07-31 20:33:00,
2013-07-31 16:34:00,70.3,70.3,30.45,NNE,18,0.0,0.0,100,0.00,,,0.12,VWS V14.01,2013-07-31 20:34:00,
2013-07-31 16:36:00,70.3,70.3,30.45,NNE,18,0.0,0.0,100,0.00,,,0.12,VWS V14.01,2013-07-31 20:36:00,
2013-07-31 16:37:00,70.3,70.3,30.45,NNE,18,0.0,0.0,100,0.00,,,0.12,VWS V14.01,2013-07-31 20:37:00,
2013-07-31 16:38:00,70.3,70.3,30.45,NNE,18,0.0,0.0,100,0.00,,,0.12,VWS V14.01,2013-07-31 20:38:00,
2013-07-31 16:39:00,70.3,70.3,30.45,NNE,18,0.0,0.0,100,0.00,,,0.12,VWS V14.01,2013-07-31 20:39:00,
2013-07-31 16:41:00,70.3,70.3,30.45,NNE,17,0.0,0.0,100,0.00,,,0.12,VWS V14.01,2013-07-31 20:41:00,
2013-07-31 16:42:00,70.3,70.3,30.45,NNE,17,0.0,0.0,100,0.00,,,0.12,VWS V14.01,2013-07-31 20:42:00,
2013-07-31 16:43:00,70.3,70.3,30.39,NNE,17,0.0,0.0,100,0.00,,,0.12,VWS V14.01,2013-07-31 20:43:00,
2013-07-31 16:44:00,70.3,70.3,30.39,NNE,17,0.0,0.0,100,0.00,,,0.12,VWS V14.01,2013-07-31 20:44:00,
2013-07-31 16:47:00,70.3,70.3,30.39,NNE,17,0.0,0.0,100,0.00,,,0.12,VWS V14.01,2013-07-31 20:47:00,
2013-07-31 16:48:00,70.3,70.3,30.39,NNE,17,0.0,0.0,100,0.00,,,0.12,VWS V14.01,2013-07-31 20:48:00,
2013-07-31 16:49:00,70.3,70.3,30.39,NNE,17,0.0,0.0,100,0.00,,,0.12,VWS V14.01,2013-07-31 20:49:00,
2013-07-31 16:52:00,70.3,70.3,30.39,NNE,17,0.0,0.0,100,0.00,,,0.12,VWS V14.01,2013-07-31 20:52:00,
2013-07-31 16:53:00,70.3,70.3,30.39,NNE,17,0.0,0.0,100,0.00,,,0.12,VWS V14.01,2013-07-31 20:53:00,
2013-07-31 16:54:00,70.3,70.3,30.39,NNE,17,3.1,3.1,100,0.00,,,0.12,VWS V14.01,2013-07-31 20:54:00,
2013-07-31 16:57:00,70.3,70.3,30.39,NNE,17,3.1,3.1,100,0.00,,,0.12,VWS V14.01,2013-07-31 20:57:00,
2013-07-31 16:58:00,70.3,70.3,30.39,NNE,17,3.1,3.1,100,0.00,,,0.12,VWS V14.01,2013-07-31 20:58:00,
2013-07-31 16:59:00,70.5,70.5,30.39,NNE,18,0.0,0.0,100,0.00,,,0.12,VWS V14.01,2013-07-31 20:59:00,
2013-07-31 17:02:00,70.7,70.7,30.39,NNE,18,0.0,0.0,100,0.00,,,0.12,VWS V14.01,2013-07-31 21:02:00,
2013-07-31 17:03:00,70.7,70.7,30.39,NNE,18,0.0,0.0,100,0.00,,,0.12,VWS V14.01,2013-07-31 21:03:00,
2013-07-31 17:04:00,70.7,70.7,30.39,NNE,18,0.0,0.0,100,0.00,,,0.12,VWS V14.01,2013-07-31 21:04:00,
2013-07-31 17:07:00,70.7,70.7,30.39,NNE,18,0.0,0.0,100,0.00,,,0.12,VWS V14.01,2013-07-31 21:07:00,
2013-07-31 17:08:00,70.7,70.7,30.39,NNE,18,0.0,0.0,100,0.00,,,0.12,VWS V14.01,2013-07-31 21:08:00,
2013-07-31 17:09:00,70.7,70.7,30.39,NNE,18,0.0,0.0,100,0.00,,,0.12,VWS V14.01,2013-07-31 21:09:00,
2013-07-31 17:12:00,70.9,70.9,30.39,NNE,18,0.0,0.0,100,0.00,,,0.12,VWS V14.01,2013-07-31 21:12:00,
2013-07-31 17:13:00,70.9,70.9,30.39,NNE,18,0.0,0.0,100,0.00,,,0.12,VWS V14.01,2013-07-31 21:13:00,
2013-07-31 17:14:00,70.9,70.9,30.39,NNE,18,0.0,0.0,100,0.00,,,0.12,VWS V14.01,2013-07-31 21:14:00,
2013-07-31 17:18:00,70.9,70.9,30.39,NNE,18,0.0,0.0,100,0.00,,,0.12,VWS V14.01,2013-07-31 21:18:00,
2013-07-31 17:19:00,70.9,70.9,30.39,NNE,18,0.0,0.0,100,0.00,,,0.12,VWS V14.01,2013-07-31 21:19:00,
2013-07-31 17:20:00,70.9,70.9,30.39,NNE,18,0.0,0.0,100,0.00,,,0.12,VWS V14.01,2013-07-31 21:20:00,
2013-07-31 17:23:00,70.9,70.9,30.39,NNE,18,0.0,0.0,100,0.00,,,0.12,VWS V14.01,2013-07-31 21:23:00,
2013-07-31 17:24:00,70.9,70.9,30.39,NNE,18,0.0,0.0,100,0.00,,,0.12,VWS V14.01,2013-07-31 21:24:00,
2013-07-31 17:25:00,70.7,70.7,30.39,NNE,18,0.0,0.0,100,0.00,,,0.12,VWS V14.01,2013-07-31 21:25:00,
2013-07-31 17:28:00,70.7,70.7,30.39,NNE,18,0.0,0.0,100,0.00,,,0.12,VWS V14.01,2013-07-31 21:28:00,
2013-07-31 17:29:00,70.7,70.7,30.39,NNE,18,0.0,0.0,100,0.00,,,0.12,VWS V14.01,2013-07-31 21:29:00,
2013-07-31 17:30:00,70.7,70.7,30.39,NNE,18,0.0,0.0,100,0.00,,,0.12,VWS V14.01,2013-07-31 21:30:00,
2013-07-31 17:34:00,70.7,70.7,30.39,NNE,18,0.0,0.0,100,0.00,,,0.12,VWS V14.01,2013-07-31 21:34:00,
2013-07-31 17:35:00,70.7,70.7,30.39,NNE,18,0.0,0.0,100,0.00,,,0.12,VWS V14.01,2013-07-31 21:35:00,
2013-07-31 17:39:00,70.7,70.7,30.39,NNE,18,0.0,0.0,100,0.00,,,0.12,VWS V14.01,2013-07-31 21:39:00,
2013-07-31 17:40:00,70.7,70.7,30.39,NNE,18,0.0,0.0,100,0.00,,,0.12,VWS V14.01,2013-07-31 21:40:00,
2013-07-31 17:44:00,70.7,70.7,30.39,NNE,18,0.0,0.0,100,0.00,,,0.12,VWS V14.01,2013-07-31 21:44:00,
2013-07-31 17:45:00,70.7,70.7,30.39,NNE,18,0.0,0.0,100,0.00,,,0.12,VWS V14.01,2013-07-31 21:45:00,
2013-07-31 17:49:00,70.5,70.5,30.39,ENE,60,2.2,2.2,100,0.00,,,0.12,VWS V14.01,2013-07-31 21:49:00,
2013-07-31 17:50:00,70.5,70.5,30.39,ENE,70,5.4,5.4,100,0.00,,,0.12,VWS V14.01,2013-07-31 21:50:00,
2013-07-31 17:54:00,70.3,70.3,30.39,ENE,70,0.0,0.0,100,0.00,,,0.12,VWS V14.01,2013-07-31 21:54:00,
2013-07-31 17:55:00,70.3,70.3,30.39,ENE,70,0.0,0.0,100,0.00,,,0.12,VWS V14.01,2013-07-31 21:55:00,
2013-07-31 18:00:00,70.3,70.3,30.42,ENE,70,0.0,0.0,100,0.00,,,0.12,VWS V14.01,2013-07-31 22:00:00,
2013-07-31 18:01:00,70.3,70.3,30.42,ENE,70,0.0,0.0,100,0.00,,,0.12,VWS V14.01,2013-07-31 22:01:00,
2013-07-31 18:05:00,70.2,70.2,30.42,NE,41,0.0,2.2,100,0.00,,,0.12,VWS V14.01,2013-07-31 22:05:00,
2013-07-31 18:06:00,70.2,70.2,30.42,NE,41,2.7,2.7,100,0.00,,,0.12,VWS V14.01,2013-07-31 22:06:00,
2013-07-31 18:10:00,70.2,70.2,30.42,NE,41,0.0,0.0,100,0.00,,,0.12,VWS V14.01,2013-07-31 22:10:00,
2013-07-31 18:11:00,70.2,70.2,30.39,NE,41,0.0,0.0,100,0.00,,,0.12,VWS V14.01,2013-07-31 22:11:00,
2013-07-31 18:15:00,70.3,70.3,30.39,ENE,62,3.1,3.1,100,0.00,,,0.12,VWS V14.01,2013-07-31 22:15:00,
2013-07-31 18:16:00,70.3,70.3,30.39,ENE,62,3.1,3.1,100,0.00,,,0.12,VWS V14.01,2013-07-31 22:16:00,
2013-07-31 18:20:00,70.7,70.7,30.39,ENE,62,3.6,3.6,100,0.00,,,0.12,VWS V14.01,2013-07-31 22:20:00,
2013-07-31 18:21:00,70.7,70.7,30.39,ENE,62,3.6,3.6,100,0.00,,,0.12,VWS V14.01,2013-07-31 22:21:00,
2013-07-31 18:25:00,70.7,70.7,30.39,ENE,64,4.0,4.0,100,0.00,,,0.12,VWS V14.01,2013-07-31 22:25:00,
2013-07-31 18:26:00,70.7,70.7,30.39,ENE,64,4.0,4.0,100,0.00,,,0.12,VWS V14.01,2013-07-31 22:26:00,
2013-07-31 18:27:00,70.7,70.7,30.39,ENE,64,0.0,4.0,100,0.00,,,0.12,VWS V14.01,2013-07-31 22:27:00,
2013-07-31 18:31:00,71.1,71.1,30.39,ENE,64,0.0,0.0,100,0.00,,,0.12,VWS V14.01,2013-07-31 22:31:00,
2013-07-31 18:32:00,71.1,71.1,30.39,NE,50,3.6,3.6,100,0.00,,,0.12,VWS V14.01,2013-07-31 22:32:00,
2013-07-31 18:36:00,71.4,71.4,30.39,ENE,68,3.6,3.6,100,0.00,,,0.12,VWS V14.01,2013-07-31 22:36:00,
2013-07-31 18:37:00,71.4,71.4,30.39,ENE,68,3.6,3.6,100,0.00,,,0.12,VWS V14.01,2013-07-31 22:37:00,
2013-07-31 18:41:00,71.4,71.4,30.39,ENE,75,2.2,2.2,100,0.00,,,0.12,VWS V14.01,2013-07-31 22:41:00,
2013-07-31 18:42:00,71.4,71.4,30.39,ENE,75,2.7,2.7,100,0.00,,,0.12,VWS V14.01,2013-07-31 22:42:00,
2013-07-31 18:43:00,71.4,71.4,30.42,ENE,75,2.7,2.7,100,0.00,,,0.12,VWS V14.01,2013-07-31 22:43:00,
2013-07-31 18:46:00,71.8,71.8,30.42,ENE,75,0.0,0.0,100,0.00,,,0.12,VWS V14.01,2013-07-31 22:46:00,
2013-07-31 18:47:00,71.8,71.8,30.42,ENE,75,0.0,0.0,100,0.00,,,0.12,VWS V14.01,2013-07-31 22:47:00,
2013-07-31 18:48:00,71.8,71.8,30.42,ENE,75,0.0,0.0,100,0.00,,,0.12,VWS V14.01,2013-07-31 22:48:00,
2013-07-31 18:52:00,71.8,71.8,30.42,ENE,75,0.0,0.0,100,0.00,,,0.12,VWS V14.01,2013-07-31 22:52:00,
2013-07-31 18:53:00,71.8,71.8,30.42,ENE,75,0.0,0.0,100,0.00,,,0.12,VWS V14.01,2013-07-31 22:53:00,
2013-07-31 18:57:00,73.2,73.2,30.39,ENE,61,3.6,3.6,100,0.00,,,0.12,VWS V14.01,2013-07-31 22:57:00,
2013-07-31 18:58:00,73.2,73.2,30.39,ENE,61,0.0,0.0,100,0.00,,,0.12,VWS V14.01,2013-07-31 22:58:00,
2013-07-31 19:02:00,73.4,73.4,30.39,ENE,61,0.0,0.0,100,0.00,,,0.12,VWS V14.01,2013-07-31 23:02:00,
2013-07-31 19:03:00,73.4,73.4,30.39,ENE,61,0.0,0.0,100,0.00,,,0.12,VWS V14.01,2013-07-31 23:03:00,
2013-07-31 19:07:00,73.4,73.4,30.39,ENE,61,0.0,0.0,100,0.00,,,0.12,VWS V14.01,2013-07-31 23:07:00,
2013-07-31 19:08:00,73.4,73.4,30.39,ENE,61,2.7,2.7,100,0.00,,,0.12,VWS V14.01,2013-07-31 23:08:00,
2013-07-31 19:12:00,73.0,73.1,30.39,NE,53,2.7,2.7,100,0.00,,,0.12,VWS V14.01,2013-07-31 23:12:00,
2013-07-31 19:13:00,73.0,73.1,30.39,NE,53,2.7,2.7,100,0.00,,,0.12,VWS V14.01,2013-07-31 23:13:00,
2013-07-31 19:17:00,73.0,73.1,30.39,East,83,2.7,2.7,100,0.00,,,0.00,VWS V14.01,2013-07-31 23:17:00,
2013-07-31 19:18:00,73.0,73.1,30.39,East,83,2.7,2.7,100,0.00,,,0.12,VWS V14.01,2013-07-31 23:18:00,
2013-07-31 19:19:00,73.0,73.1,30.39,East,83,2.7,2.7,100,0.00,,,0.12,VWS V14.01,2013-07-31 23:19:00,
2013-07-31 19:22:00,72.3,71.7,30.39,East,83,2.7,2.7,98,0.00,,,0.12,VWS V14.01,2013-07-31 23:22:00,
2013-07-31 19:23:00,72.3,71.7,30.39,East,83,2.7,2.7,98,0.00,,,0.12,VWS V14.01,2013-07-31 23:23:00,
2013-07-31 19:24:00,72.3,71.7,30.39,ENE,69,2.2,2.2,98,0.00,,,0.12,VWS V14.01,2013-07-31 23:24:00,
2013-07-31 19:27:00,72.3,71.7,30.39,ENE,69,0.0,0.0,98,0.00,,,0.12,VWS V14.01,2013-07-31 23:27:00,
2013-07-31 19:28:00,72.3,71.7,30.39,ENE,69,0.0,0.0,98,0.00,,,0.12,VWS V14.01,2013-07-31 23:28:00,
2013-07-31 19:29:00,72.3,71.7,30.39,ENE,57,2.7,2.7,98,0.00,,,0.12,VWS V14.01,2013-07-31 23:29:00,
2013-07-31 19:32:00,72.1,71.8,30.39,ENE,57,2.7,2.7,99,0.00,,,0.12,VWS V14.01,2013-07-31 23:32:00,
2013-07-31 19:33:00,72.1,71.8,30.39,ENE,57,2.7,2.7,99,0.00,,,0.12,VWS V14.01,2013-07-31 23:33:00,
2013-07-31 19:34:00,72.1,71.8,30.39,ENE,57,3.1,3.1,99,0.00,,,0.12,VWS V14.01,2013-07-31 23:34:00,
2013-07-31 19:37:00,72.1,71.8,30.39,ENE,74,3.6,3.6,99,0.00,,,0.12,VWS V14.01,2013-07-31 23:37:00,
2013-07-31 19:38:00,72.1,71.8,30.39,ENE,74,3.6,3.6,99,0.00,,,0.12,VWS V14.01,2013-07-31 23:38:00,
2013-07-31 19:40:00,72.1,71.8,30.39,ENE,74,2.7,2.7,99,0.00,,,0.12,VWS V14.01,2013-07-31 23:40:00,
2013-07-31 19:43:00,72.1,71.8,30.39,ENE,74,2.7,2.7,99,0.00,,,0.12,VWS V14.01,2013-07-31 23:43:00,
2013-07-31 19:45:00,72.1,71.8,30.39,ENE,74,2.7,2.7,99,0.00,,,0.12,VWS V14.01,2013-07-31 23:45:00,
2013-07-31 19:48:00,72.1,71.8,30.39,ENE,74,2.7,2.7,99,0.00,,,0.12,VWS V14.01,2013-07-31 23:48:00,
2013-07-31 19:49:00,72.0,71.7,30.39,ENE,77,3.6,3.6,99,0.00,,,0.12,VWS V14.01,2013-07-31 23:49:00,
2013-07-31 19:50:00,72.0,71.7,30.39,NE,43,3.1,3.1,99,0.00,,,0.12,VWS V14.01,2013-07-31 23:50:00,
2013-07-31 19:53:00,72.0,71.7,30.39,ENE,71,3.1,3.1,99,0.00,,,0.12,VWS V14.01,2013-07-31 23:53:00,
2013-07-31 19:54:00,72.0,71.7,30.39,ENE,71,3.1,3.1,99,0.00,,,0.12,VWS V14.01,2013-07-31 23:54:00,
2013-07-31 19:55:00,72.0,71.7,30.39,ENE,71,3.1,3.1,99,0.00,,,0.12,VWS V14.01,2013-07-31 23:55:00,
2013-07-31 19:58:00,72.0,71.7,30.39,ENE,71,3.1,3.1,99,0.00,,,0.12,VWS V14.01,2013-07-31 23:58:00,
2013-07-31 19:59:00,72.0,71.7,30.39,ENE,71,3.1,3.1,99,0.00,,,0.12,VWS V14.01,2013-07-31 23:59:00,
2013-07-31 20:00:00,72.0,71.7,30.39,ENE,77,4.0,4.0,99,0.00,,,0.12,VWS V14.01,2013-08-01 00:00:00,
2013-07-31 20:03:00,72.0,71.7,30.39,ENE,71,3.1,3.1,99,0.00,,,0.12,VWS V14.01,2013-08-01 00:03:00,
2013-07-31 20:04:00,71.6,71.3,30.39,ENE,71,3.1,3.1,99,0.00,,,0.12,VWS V14.01,2013-08-01 00:04:00,
2013-07-31 20:05:00,71.6,71.3,30.39,ENE,72,4.9,4.9,99,0.00,,,0.12,VWS V14.01,2013-08-01 00:05:00,
2013-07-31 20:08:00,71.6,71.3,30.39,ENE,72,4.9,4.9,99,0.00,,,0.12,VWS V14.01,2013-08-01 00:08:00,
2013-07-31 20:09:00,71.6,71.3,30.39,ENE,72,4.9,4.9,99,0.00,,,0.12,VWS V14.01,2013-08-01 00:09:00,
2013-07-31 20:10:00,71.6,71.3,30.39,ENE,72,4.9,4.9,99,0.00,,,0.12,VWS V14.01,2013-08-01 00:10:00,
2013-07-31 20:13:00,71.4,71.4,30.39,NE,49,3.6,3.6,100,0.00,,,0.12,VWS V14.01,2013-08-01 00:13:00,
2013-07-31 20:14:00,71.4,71.4,30.39,NE,49,3.6,3.6,100,0.00,,,0.12,VWS V14.01,2013-08-01 00:14:00,
2013-07-31 20:16:00,71.4,71.4,30.39,NE,55,3.6,4.9,100,0.00,,,0.12,VWS V14.01,2013-08-01 00:16:00,
2013-07-31 20:19:00,71.4,71.4,30.39,ENE,73,4.0,4.0,100,0.00,,,0.12,VWS V14.01,2013-08-01 00:19:00,
2013-07-31 20:22:00,71.4,71.4,30.39,ENE,58,3.1,3.1,100,0.00,,,0.12,VWS V14.01,2013-08-01 00:22:00,
2013-07-31 20:24:00,71.4,71.4,30.39,ENE,58,3.1,3.1,100,0.00,,,0.12,VWS V14.01,2013-08-01 00:24:00,
2013-07-31 20:25:00,71.4,71.4,30.39,ENE,58,3.1,3.1,100,0.00,,,0.12,VWS V14.01,2013-08-01 00:25:00,
2013-07-31 20:27:00,71.4,71.4,30.39,ENE,71,5.4,5.4,100,0.00,,,0.12,VWS V14.01,2013-08-01 00:27:00,
2013-07-31 20:29:00,71.4,71.4,30.39,ENE,71,5.4,5.4,100,0.00,,,0.12,VWS V14.01,2013-08-01 00:29:00,
2013-07-31 20:30:00,71.1,71.1,30.39,ENE,71,5.4,5.4,100,0.00,,,0.12,VWS V14.01,2013-08-01 00:30:00,
2013-07-31 20:32:00,71.1,71.1,30.39,NE,45,5.8,5.8,100,0.00,,,0.12,VWS V14.01,2013-08-01 00:32:00,
2013-07-31 20:34:00,70.9,70.9,30.39,NE,54,4.9,5.8,100,0.00,,,0.12,VWS V14.01,2013-08-01 00:34:00,
2013-07-31 20:35:00,70.9,70.9,30.39,NE,54,4.9,4.9,100,0.00,,,0.12,VWS V14.01,2013-08-01 00:35:00,
2013-07-31 20:37:00,70.9,70.9,30.39,NE,54,4.9,4.9,100,0.00,,,0.12,VWS V14.01,2013-08-01 00:37:00,
2013-07-31 20:39:00,70.7,70.7,30.39,NE,54,4.9,4.9,100,0.00,,,0.12,VWS V14.01,2013-08-01 00:39:00,
2013-07-31 20:40:00,70.7,70.7,30.39,NE,54,4.9,4.9,100,0.00,,,0.12,VWS V14.01,2013-08-01 00:40:00,
2013-07-31 20:42:00,70.7,70.7,30.45,ENE,65,3.6,3.6,100,0.00,,,0.12,VWS V14.01,2013-08-01 00:42:00,
2013-07-31 20:43:00,70.7,70.7,30.45,ENE,72,3.1,3.6,100,0.00,,,0.12,VWS V14.01,2013-08-01 00:43:00,
2013-07-31 20:44:00,70.7,70.7,30.45,ENE,58,4.0,4.0,100,0.00,,,0.12,VWS V14.01,2013-08-01 00:44:00,
2013-07-31 20:46:00,70.7,70.7,30.45,ENE,75,3.1,4.0,100,0.00,,,0.12,VWS V14.01,2013-08-01 00:46:00,
2013-07-31 20:48:00,70.7,70.7,30.45,ENE,70,2.2,2.2,100,0.00,,,0.12,VWS V14.01,2013-08-01 00:48:00,
2013-07-31 20:49:00,70.7,70.7,30.45,ENE,70,2.2,2.2,100,0.00,,,0.12,VWS V14.01,2013-08-01 00:49:00,
2013-07-31 20:51:00,70.3,70.3,30.45,ENE,70,2.2,2.2,100,0.00,,,0.12,VWS V14.01,2013-08-01 00:51:00,
2013-07-31 20:53:00,70.3,70.3,30.45,ENE,61,4.0,4.0,100,0.00,,,0.12,VWS V14.01,2013-08-01 00:53:00,
2013-07-31 20:55:00,70.3,70.3,30.36,ENE,57,4.0,4.0,100,0.00,,,0.12,VWS V14.01,2013-08-01 00:55:00,
2013-07-31 20:56:00,70.2,70.2,30.36,ENE,57,4.0,4.0,100,0.00,,,0.12,VWS V14.01,2013-08-01 00:56:00,
2013-07-31 20:58:00,70.2,70.2,30.36,ENE,71,3.6,3.6,100,0.00,,,0.12,VWS V14.01,2013-08-01 00:58:00,
2013-07-31 21:00:00,70.2,70.2,30.36,ENE,71,3.6,3.6,100,0.00,,,0.12,VWS V14.01,2013-08-01 01:00:00,
2013-07-31 21:02:00,70.2,70.2,30.36,ENE,71,3.6,3.6,100,0.00,,,0.12,VWS V14.01,2013-08-01 01:02:00,
2013-07-31 21:03:00,70.2,70.2,30.36,ENE,71,3.6,3.6,100,0.00,,,0.12,VWS V14.01,2013-08-01 01:03:00,
2013-07-31 21:05:00,70.0,70.0,30.36,ENE,63,5.4,5.4,100,0.00,,,0.12,VWS V14.01,2013-08-01 01:05:00,
2013-07-31 21:07:00,69.8,69.8,30.36,ENE,63,5.4,5.4,100,0.00,,,0.12,VWS V14.01,2013-08-01 01:07:00,
2013-07-31 21:08:00,69.8,69.8,30.36,East,90,3.6,3.6,100,0.00,,,0.12,VWS V14.01,2013-08-01 01:08:00,
2013-07-31 21:09:00,69.8,69.8,30.36,ENE,61,5.8,5.8,100,0.00,,,0.12,VWS V14.01,2013-08-01 01:09:00,
2013-07-31 21:10:00,69.8,69.8,30.36,ENE,61,5.8,5.8,100,0.00,,,0.12,VWS V14.01,2013-08-01 01:10:00,
2013-07-31 21:12:00,69.8,69.8,30.36,ENE,62,4.0,4.0,100,0.00,,,0.12,VWS V14.01,2013-08-01 01:12:00,
2013-07-31 21:13:00,69.8,69.8,30.39,ENE,62,4.0,4.0,100,0.00,,,0.12,VWS V14.01,2013-08-01 01:13:00,
2013-07-31 21:14:00,69.8,69.8,30.39,ENE,62,4.0,4.0,100,0.00,,,0.12,VWS V14.01,2013-08-01 01:14:00,
2013-07-31 21:15:00,69.8,69.8,30.39,ENE,62,4.0,4.0,100,0.00,,,0.12,VWS V14.01,2013-08-01 01:15:00,
2013-07-31 21:17:00,69.8,69.8,30.39,ENE,62,4.0,4.0,100,0.00,,,0.12,VWS V14.01,2013-08-01 01:17:00,
2013-07-31 21:18:00,69.8,69.8,30.39,NE,56,4.9,4.9,100,0.00,,,0.12,VWS V14.01,2013-08-01 01:18:00,
2013-07-31 21:19:00,69.4,69.4,30.39,NE,56,4.9,4.9,100,0.00,,,0.12,VWS V14.01,2013-08-01 01:19:00,
2013-07-31 21:20:00,69.4,69.4,30.39,NE,56,4.9,4.9,100,0.00,,,0.12,VWS V14.01,2013-08-01 01:20:00,
2013-07-31 21:22:00,69.3,69.3,30.39,ENE,69,4.0,4.0,100,0.00,,,0.12,VWS V14.01,2013-08-01 01:22:00,
2013-07-31 21:24:00,69.3,69.3,30.39,ENE,69,4.0,4.0,100,0.00,,,0.12,VWS V14.01,2013-08-01 01:24:00,
2013-07-31 21:25:00,69.3,69.3,30.39,ENE,74,5.8,5.8,100,0.00,,,0.12,VWS V14.01,2013-08-01 01:25:00,
2013-07-31 21:27:00,69.3,69.3,30.39,ENE,58,3.1,3.1,100,0.00,,,0.12,VWS V14.01,2013-08-01 01:27:00,
2013-07-31 21:29:00,69.3,69.3,30.39,ENE,58,3.1,3.1,100,0.00,,,0.12,VWS V14.01,2013-08-01 01:29:00,
2013-07-31 21:30:00,69.3,69.3,30.39,ENE,58,3.1,3.1,100,0.00,,,0.12,VWS V14.01,2013-08-01 01:30:00,
2013-07-31 21:31:00,69.1,69.1,30.39,ENE,58,3.1,3.1,100,0.00,,,0.12,VWS V14.01,2013-08-01 01:31:00,
2013-07-31 21:32:00,69.1,69.1,30.39,ENE,58,3.1,3.1,100,0.00,,,0.12,VWS V14.01,2013-08-01 01:32:00,
2013-07-31 21:34:00,69.1,69.1,30.39,ENE,61,4.0,4.0,100,0.00,,,0.12,VWS V14.01,2013-08-01 01:34:00,
2013-07-31 21:35:00,69.1,69.1,30.39,ENE,61,4.0,4.0,100,0.00,,,0.12,VWS V14.01,2013-08-01 01:35:00,
2013-07-31 21:36:00,69.1,69.1,30.39,ENE,60,4.9,4.9,100,0.00,,,0.12,VWS V14.01,2013-08-01 01:36:00,
2013-07-31 21:37:00,69.1,69.1,30.39,ENE,76,4.0,4.9,100,0.00,,,0.12,VWS V14.01,2013-08-01 01:37:00,
2013-07-31 21:39:00,69.1,69.1,30.39,ENE,76,4.9,4.9,100,0.00,,,0.00,VWS V14.01,2013-08-01 01:39:00,
2013-07-31 21:40:00,68.9,68.9,30.36,ENE,76,4.9,4.9,100,0.00,,,0.12,VWS V14.01,2013-08-01 01:40:00,
2013-07-31 21:41:00,68.9,68.9,30.36,ENE,62,2.2,2.2,100,0.00,,,0.12,VWS V14.01,2013-08-01 01:41:00,
2013-07-31 21:43:00,68.9,68.9,30.36,ENE,62,2.2,2.2,100,0.00,,,0.12,VWS V14.01,2013-08-01 01:43:00,
2013-07-31 21:44:00,68.9,68.9,30.36,NE,56,4.0,4.0,100,0.00,,,0.12,VWS V14.01,2013-08-01 01:44:00,
2013-07-31 21:45:00,68.9,68.9,30.36,NE,56,4.0,4.0,100,0.00,,,0.12,VWS V14.01,2013-08-01 01:45:00,
2013-07-31 21:46:00,68.9,68.9,30.36,NE,56,4.0,4.0,100,0.00,,,0.12,VWS V14.01,2013-08-01 01:46:00,
2013-07-31 21:48:00,68.9,68.9,30.36,NE,56,4.0,4.0,100,0.00,,,0.12,VWS V14.01,2013-08-01 01:48:00,
2013-07-31 21:49:00,68.9,68.9,30.36,NE,56,4.0,4.0,100,0.00,,,0.12,VWS V14.01,2013-08-01 01:49:00,
2013-07-31 21:50:00,68.9,68.9,30.36,NE,56,4.0,4.0,100,0.00,,,0.12,VWS V14.01,2013-08-01 01:50:00,
2013-07-31 21:52:00,68.9,68.9,30.36,NE,54,2.7,2.7,100,0.00,,,0.12,VWS V14.01,2013-08-01 01:52:00,
2013-07-31 21:53:00,68.9,68.9,30.36,NE,54,2.7,2.7,100,0.00,,,0.12,VWS V14.01,2013-08-01 01:53:00,
2013-07-31 21:54:00,68.9,68.9,30.36,ENE,63,3.1,3.1,100,0.00,,,0.12,VWS V14.01,2013-08-01 01:54:00,
2013-07-31 21:55:00,68.9,68.9,30.36,ENE,63,3.1,3.1,100,0.00,,,0.12,VWS V14.01,2013-08-01 01:55:00,
2013-07-31 21:57:00,68.7,68.7,30.36,ENE,63,3.1,3.1,100,0.00,,,0.12,VWS V14.01,2013-08-01 01:57:00,
2013-07-31 21:58:00,68.7,68.7,30.36,ENE,63,3.1,3.1,100,0.00,,,0.12,VWS V14.01,2013-08-01 01:58:00,
2013-07-31 21:59:00,68.7,68.7,30.36,ENE,63,2.7,3.1,100,0.00,,,0.12,VWS V14.01,2013-08-01 01:59:00,
2013-07-31 22:00:00,68.7,68.7,30.36,ENE,63,2.7,2.7,100,0.00,,,0.12,VWS V14.01,2013-08-01 02:00:00,
2013-07-31 22:02:00,68.7,68.7,30.36,ENE,63,0.0,2.7,100,0.00,,,0.12,VWS V14.01,2013-08-01 02:02:00,
2013-07-31 22:03:00,68.7,68.7,30.36,ENE,63,0.0,0.0,100,0.00,,,0.12,VWS V14.01,2013-08-01 02:03:00,
2013-07-31 22:04:00,68.7,68.7,30.36,NE,52,0.0,0.0,100,0.00,,,0.12,VWS V14.01,2013-08-01 02:04:00,
2013-07-31 22:05:00,68.7,68.7,30.36,NE,52,0.0,0.0,100,0.00,,,0.12,VWS V14.01,2013-08-01 02:05:00,
2013-07-31 22:07:00,68.5,68.5,30.36,NE,52,0.0,0.0,100,0.00,,,0.12,VWS V14.01,2013-08-01 02:07:00,
2013-07-31 22:08:00,68.5,68.5,30.36,NE,52,0.0,0.0,100,0.00,,,0.12,VWS V14.01,2013-08-01 02:08:00,
2013-07-31 22:09:00,68.5,68.5,30.42,ENE,73,2.2,2.2,100,0.00,,,0.12,VWS V14.01,2013-08-01 02:09:00,
2013-07-31 22:10:00,68.5,68.5,30.42,ENE,73,2.2,2.2,100,0.00,,,0.12,VWS V14.01,2013-08-01 02:10:00,
2013-07-31 22:13:00,68.5,68.5,30.42,ENE,73,0.0,0.0,100,0.00,,,0.12,VWS V14.01,2013-08-01 02:13:00,
2013-07-31 22:14:00,68.5,68.5,30.42,ENE,73,0.0,0.0,100,0.00,,,0.12,VWS V14.01,2013-08-01 02:14:00,
2013-07-31 22:15:00,68.5,68.5,30.42,ENE,73,0.0,0.0,100,0.00,,,0.12,VWS V14.01,2013-08-01 02:15:00,
2013-07-31 22:16:00,68.5,68.5,30.42,ENE,73,0.0,0.0,100,0.00,,,0.12,VWS V14.01,2013-08-01 02:16:00,
2013-07-31 22:18:00,68.4,68.4,30.42,ENE,73,0.0,0.0,100,0.00,,,0.12,VWS V14.01,2013-08-01 02:18:00,
2013-07-31 22:19:00,68.4,68.4,30.42,ENE,73,0.0,0.0,100,0.00,,,0.12,VWS V14.01,2013-08-01 02:19:00,
2013-07-31 22:20:00,68.4,68.4,30.42,ENE,73,0.0,0.0,100,0.00,,,0.12,VWS V14.01,2013-08-01 02:20:00,
2013-07-31 22:21:00,68.4,68.4,30.42,ENE,73,0.0,0.0,100,0.00,,,0.12,VWS V14.01,2013-08-01 02:21:00,
2013-07-31 22:23:00,68.4,68.4,30.42,ENE,73,0.0,0.0,100,0.00,,,0.12,VWS V14.01,2013-08-01 02:23:00,
2013-07-31 22:24:00,68.4,68.4,30.42,ENE,73,2.2,2.2,100,0.00,,,0.12,VWS V14.01,2013-08-01 02:24:00,
2013-07-31 22:25:00,68.4,68.4,30.42,ENE,73,3.6,3.6,100,0.00,,,0.12,VWS V14.01,2013-08-01 02:25:00,
2013-07-31 22:26:00,68.2,68.2,30.42,ENE,73,3.6,3.6,100,0.00,,,0.12,VWS V14.01,2013-08-01 02:26:00,
2013-07-31 22:28:00,68.2,68.2,30.42,ENE,73,2.7,2.7,100,0.00,,,0.12,VWS V14.01,2013-08-01 02:28:00,
2013-07-31 22:29:00,68.2,68.2,30.42,ENE,73,2.7,2.7,100,0.00,,,0.12,VWS V14.01,2013-08-01 02:29:00,
2013-07-31 22:30:00,68.2,68.2,30.42,ENE,73,2.7,2.7,100,0.00,,,0.12,VWS V14.01,2013-08-01 02:30:00,
2013-07-31 22:31:00,68.2,68.2,30.42,ENE,72,2.2,2.2,100,0.00,,,0.12,VWS V14.01,2013-08-01 02:31:00,
2013-07-31 22:33:00,68.2,68.2,30.42,ENE,72,2.2,2.2,100,0.00,,,0.12,VWS V14.01,2013-08-01 02:33:00,
2013-07-31 22:34:00,68.2,68.2,30.42,ENE,72,2.2,2.2,100,0.00,,,0.12,VWS V14.01,2013-08-01 02:34:00,
2013-07-31 22:35:00,68.2,68.2,30.42,ENE,72,2.7,2.7,100,0.00,,,0.12,VWS V14.01,2013-08-01 02:35:00,
2013-07-31 22:37:00,68.2,68.2,30.42,ENE,72,2.7,2.7,100,0.00,,,0.12,VWS V14.01,2013-08-01 02:37:00,
2013-07-31 22:39:00,68.0,68.0,30.42,ENE,72,2.7,2.7,100,0.00,,,0.12,VWS V14.01,2013-08-01 02:39:00,
2013-07-31 22:40:00,68.0,68.0,30.42,ENE,72,2.7,2.7,100,0.00,,,0.12,VWS V14.01,2013-08-01 02:40:00,
2013-07-31 22:42:00,68.0,68.0,30.42,ENE,72,2.7,2.7,100,0.00,,,0.12,VWS V14.01,2013-08-01 02:42:00,
2013-07-31 22:44:00,68.0,68.0,30.39,ENE,72,3.6,3.6,100,0.00,,,0.12,VWS V14.01,2013-08-01 02:44:00,
2013-07-31 22:45:00,68.0,68.0,30.39,ENE,72,3.6,3.6,100,0.00,,,0.12,VWS V14.01,2013-08-01 02:45:00,
2013-07-31 22:47:00,68.0,68.0,30.39,ENE,72,2.7,2.7,100,0.00,,,0.12,VWS V14.01,2013-08-01 02:47:00,
2013-07-31 22:49:00,68.0,68.0,30.39,ENE,72,2.7,2.7,100,0.00,,,0.12,VWS V14.01,2013-08-01 02:49:00,
2013-07-31 22:50:00,68.0,68.0,30.39,ENE,72,2.7,2.7,100,0.00,,,0.12,VWS V14.01,2013-08-01 02:50:00,
2013-07-31 22:51:00,68.0,68.0,30.39,NE,48,2.7,2.7,100,0.00,,,0.12,VWS V14.01,2013-08-01 02:51:00,
2013-07-31 22:52:00,68.0,68.0,30.39,NE,48,2.7,2.7,100,0.00,,,0.12,VWS V14.01,2013-08-01 02:52:00,
2013-07-31 22:54:00,68.0,68.0,30.39,ENE,59,3.1,3.1,100,0.00,,,0.12,VWS V14.01,2013-08-01 02:54:00,
2013-07-31 22:55:00,68.0,68.0,30.45,ENE,59,3.1,3.1,100,0.00,,,0.12,VWS V14.01,2013-08-01 02:55:00,
2013-07-31 22:56:00,68.0,68.0,30.45,ENE,59,3.1,3.1,100,0.00,,,0.12,VWS V14.01,2013-08-01 02:56:00,
2013-07-31 22:57:00,68.0,68.0,30.45,ENE,59,2.2,3.1,100,0.00,,,0.12,VWS V14.01,2013-08-01 02:57:00,
2013-07-31 22:59:00,68.0,68.0,30.45,ENE,59,2.7,2.7,100,0.00,,,0.12,VWS V14.01,2013-08-01 02:59:00,
2013-07-31 23:00:00,68.0,68.0,30.45,ENE,59,3.1,3.1,100,0.00,,,0.12,VWS V14.01,2013-08-01 03:00:00,
2013-07-31 23:01:00,68.0,68.0,30.45,ENE,59,3.1,3.1,100,0.00,,,0.12,VWS V14.01,2013-08-01 03:01:00,
2013-07-31 23:02:00,68.0,68.0,30.45,ENE,60,3.6,3.6,100,0.00,,,0.12,VWS V14.01,2013-08-01 03:02:00,
2013-07-31 23:04:00,68.0,68.0,30.45,ENE,60,3.6,3.6,100,0.00,,,0.12,VWS V14.01,2013-08-01 03:04:00,
2013-07-31 23:05:00,68.0,68.0,30.45,ENE,60,3.6,3.6,100,0.00,,,0.12,VWS V14.01,2013-08-01 03:05:00,
2013-07-31 23:07:00,68.0,68.0,30.45,NE,56,3.1,3.1,100,0.00,,,0.12,VWS V14.01,2013-08-01 03:07:00,
2013-07-31 23:09:00,68.0,68.0,30.45,NE,56,3.1,3.1,100,0.00,,,0.12,VWS V14.01,2013-08-01 03:09:00,
2013-07-31 23:10:00,68.0,68.0,30.45,NE,55,2.7,3.1,100,0.00,,,0.12,VWS V14.01,2013-08-01 03:10:00,
2013-07-31 23:11:00,68.0,68.0,30.45,NE,55,2.7,2.7,100,0.00,,,0.12,VWS V14.01,2013-08-01 03:11:00,
2013-07-31 23:12:00,67.8,67.8,30.45,NE,55,2.7,2.7,100,0.00,,,0.12,VWS V14.01,2013-08-01 03:12:00,
2013-07-31 23:14:00,67.8,67.8,30.42,NE,55,2.7,2.7,100,0.00,,,0.12,VWS V14.01,2013-08-01 03:14:00,
2013-07-31 23:15:00,67.8,67.8,30.42,NE,55,2.7,2.7,100,0.00,,,0.12,VWS V14.01,2013-08-01 03:15:00,
2013-07-31 23:16:00,67.8,67.8,30.42,NE,55,2.7,2.7,100,0.00,,,0.12,VWS V14.01,2013-08-01 03:16:00,
2013-07-31 23:17:00,67.8,67.8,30.42,ENE,66,4.5,4.5,100,0.00,,,0.12,VWS V14.01,2013-08-01 03:17:00,
2013-07-31 23:19:00,67.8,67.8,30.42,ENE,66,3.1,3.1,100,0.00,,,0.12,VWS V14.01,2013-08-01 03:19:00,
2013-07-31 23:20:00,67.8,67.8,30.42,ENE,66,3.1,3.1,100,0.00,,,0.12,VWS V14.01,2013-08-01 03:20:00,
2013-07-31 23:21:00,67.8,67.8,30.42,ENE,66,3.1,3.1,100,0.00,,,0.12,VWS V14.01,2013-08-01 03:21:00,
2013-07-31 23:22:00,67.8,67.8,30.42,ENE,66,3.1,3.1,100,0.00,,,0.12,VWS V14.01,2013-08-01 03:22:00,
2013-07-31 23:24:00,67.6,67.6,30.42,ENE,64,2.2,2.2,100,0.00,,,0.12,VWS V14.01,2013-08-01 03:24:00,
2013-07-31 23:26:00,67.6,67.6,30.42,ENE,64,2.2,2.2,100,0.00,,,0.12,VWS V14.01,2013-08-01 03:26:00,
2013-07-31 23:27:00,67.6,67.6,30.42,ENE,64,0.0,2.2,100,0.00,,,0.12,VWS V14.01,2013-08-01 03:27:00,
2013-07-31 23:29:00,67.5,67.5,30.42,ENE,64,0.0,0.0,100,0.00,,,0.12,VWS V14.01,2013-08-01 03:29:00,
2013-07-31 23:31:00,67.5,67.5,30.42,ENE,64,0.0,0.0,100,0.00,,,0.12,VWS V14.01,2013-08-01 03:31:00,
2013-07-31 23:32:00,67.5,67.5,30.42,ENE,64,2.2,2.2,100,0.00,,,0.12,VWS V14.01,2013-08-01 03:32:00,
2013-07-31 23:33:00,67.5,67.5,30.42,ENE,64,2.2,2.2,100,0.00,,,0.12,VWS V14.01,2013-08-01 03:33:00,
2013-07-31 23:34:00,67.5,67.5,30.42,ENE,64,2.2,2.2,100,0.00,,,0.12,VWS V14.01,2013-08-01 03:34:00,
2013-07-31 23:36:00,67.5,67.5,30.42,ENE,64,2.2,2.2,100,0.00,,,0.12,VWS V14.01,2013-08-01 03:36:00,
2013-07-31 23:37:00,67.5,67.5,30.42,ENE,64,2.7,2.7,100,0.00,,,0.12,VWS V14.01,2013-08-01 03:37:00,
2013-07-31 23:39:00,67.3,67.3,30.39,ENE,64,0.0,0.0,100,0.00,,,0.12,VWS V14.01,2013-08-01 03:39:00,
2013-07-31 23:41:00,67.3,67.3,30.39,ENE,64,0.0,0.0,100,0.00,,,0.12,VWS V14.01,2013-08-01 03:41:00,
2013-07-31 23:42:00,67.1,67.1,30.39,ENE,64,0.0,0.0,100,0.00,,,0.12,VWS V14.01,2013-08-01 03:42:00,
2013-07-31 23:43:00,67.1,67.1,30.39,ENE,64,2.2,2.2,100,0.00,,,0.12,VWS V14.01,2013-08-01 03:43:00,
2013-07-31 23:44:00,67.1,67.1,30.39,ENE,64,2.2,2.2,100,0.00,,,0.12,VWS V14.01,2013-08-01 03:44:00,
2013-07-31 23:46:00,67.1,67.1,30.39,ENE,64,0.0,0.0,100,0.00,,,0.12,VWS V14.01,2013-08-01 03:46:00,
2013-07-31 23:47:00,67.1,67.1,30.39,ENE,64,0.0,0.0,100,0.00,,,0.12,VWS V14.01,2013-08-01 03:47:00,
2013-07-31 23:48:00,67.1,67.1,30.39,ENE,64,0.0,0.0,100,0.00,,,0.12,VWS V14.01,2013-08-01 03:48:00,
2013-07-31 23:49:00,67.1,67.1,30.39,ENE,64,0.0,0.0,100,0.00,,,0.12,VWS V14.01,2013-08-01 03:49:00,
2013-07-31 23:50:00,67.1,67.1,30.39,NE,56,2.7,2.7,100,0.00,,,0.12,VWS V14.01,2013-08-01 03:50:00,
2013-07-31 23:51:00,67.1,67.1,30.39,NE,56,2.7,2.7,100,0.00,,,0.12,VWS V14.01,2013-08-01 03:51:00,
2013-07-31 23:52:00,67.1,67.1,30.39,ENE,60,2.7,2.7,100,0.00,,,0.12,VWS V14.01,2013-08-01 03:52:00,
2013-07-31 23:53:00,66.9,66.9,30.39,ENE,60,3.1,3.1,100,0.00,,,0.12,VWS V14.01,2013-08-01 03:53:00,
2013-07-31 23:54:00,66.9,66.9,30.39,ENE,60,3.1,3.1,100,0.00,,,0.12,VWS V14.01,2013-08-01 03:54:00,
2013-07-31 23:55:00,66.9,66.9,30.39,ENE,60,3.1,3.1,100,0.00,,,0.12,VWS V14.01,2013-08-01 03:55:00,
2013-07-31 23:57:00,66.9,66.9,30.39,ENE,60,3.1,3.1,100,0.00,,,0.12,VWS V14.01,2013-08-01 03:57:00,
2013-07-31 23:58:00,66.9,66.9,30.39,ENE,60,3.1,3.1,100,0.00,,,0.12,VWS V14.01,2013-08-01 03:58:00,